[{"header": {"dx": 0.06612293990616946, "dy": 0.0552356325346848, "nx": 98, "ny": 59, "la1": 35.046912555036876, "la2": 31.78801023549047, "lo1": -121.43107172385933, "lo2": -114.95102361305473, "refTime": "2026041003", "parameterCategory": 1, "parameterNumber": 2}, "data": [14.75, 14.75, 14.75, 14.75, 14.75, 14.75, 14.75, 14.47, 14.47, 14.31, 13.86, 11.62, 12.52, 11.18, 10.28, 10.73, 10.73, 10.73, 10.73, 10.28, 9.39, 8.91, 8.48, 8.6, 8.67, 9.16, 9.16, 8.91, 8.48, 8.48, 8.14, 8.06, 6.98, 6.65, 6.71, 6.26, 7.15, 7.1, 6.99, 6.9, 6.63, 7.87, 10.4, 11.12, 12.27, 13.99, 15.93, 17.81, 18.33, 15.78, 10.12, 8.53, 7.02, 8.24, 7.96, 8.61, 9.48, 10.02, 10.47, 10.99, 10.99, 11.5, 10.79, 10.79, 10.79, 11.16, 12.17, 12.79, 12.93, 12.52, 12.46, 12.04, 11.61, 11.76, 11.96, 12.04, 12.09, 12.22, 12.86, 12.48, 10.08, 9.54, 9.32, 8.87, 8.94, 8.94, 8.49, 8.49, 8.45, 8.9, 10.04, 11.02, 11.18, 12.07, 12.14, 11.2, 8.58, 6.17, 14.3, 14.75, 14.75, 14.75, 14.75, 14.75, 15.2, 14.9, 14.47, 14.31, 13.41, 12.96, 11.62, 10.73, 11.62, 11.18, 10.28, 11.62, 10.28, 9.83, 10.28, 10.28, 9.11, 8.3, 7.74, 8.41, 8.87, 8.67, 8.67, 8.67, 7.63, 7.63, 5.86, 5.94, 5.94, 7.08, 8.05, 7.98, 7.6, 7.15, 7.87, 9.3, 11.12, 11.64, 14.03, 15.99, 18.91, 18.78, 15.77, 9.48, 6.76, 7.56, 7.65, 8.22, 8.85, 9.17, 9.48, 10.59, 10.99, 10.99, 11.5, 11.12, 10.79, 10.79, 10.79, 11.6, 12.21, 12.6, 12.38, 11.97, 11.77, 11.79, 12.21, 12.46, 12.39, 12.46, 12.09, 12.22, 12.86, 12.48, 10.08, 9.54, 9.32, 8.87, 8.94, 8.94, 8.49, 8.49, 8.45, 8.9, 10.04, 11.02, 11.18, 12.07, 12.14, 11.2, 8.58, 6.17, 14.3, 14.75, 14.75, 14.75, 14.75, 14.75, 15.2, 15.2, 14.9, 13.88, 12.14, 9.75, 11.62, 11.62, 10.73, 10.73, 11.18, 10.84, 10.84, 10.6, 9.33, 10.73, 11.18, 9.75, 8.3, 7.81, 8.22, 8.6, 8.82, 8.94, 7.97, 6.88, 6.79, 6.8, 6.23, 8.24, 8.05, 8.82, 6.64, 7.27, 7.26, 9.8, 12.22, 14.55, 17.08, 19.84, 19.52, 12.96, 8.59, 6.98, 7.9, 8.75, 9.08, 8.85, 8.85, 9.48, 10.09, 10.59, 10.99, 11.31, 11.5, 10.79, 10.79, 10.79, 11.33, 11.6, 12.04, 11.6, 11.12, 10.94, 11.64, 12.7, 12.8, 12.96, 12.81, 12.39, 12.41, 13.65, 13.84, 13.37, 10.2, 9.03, 8.87, 8.94, 8.94, 8.9, 8.02, 8.46, 8.77, 9.64, 12.42, 12.96, 12.52, 12.07, 11.71, 7.59, 3.49, 3.49, 14.3, 14.3, 14.75, 14.75, 14.75, 14.75, 15.2, 15.2, 14.47, 13.44, 11.71, 10.18, 12.07, 11.18, 11.18, 11.18, 11.62, 11.71, 10.8, 10.0, 10.6, 9.75, 11.18, 11.62, 10.52, 8.43, 6.91, 8.0, 8.77, 8.49, 8.49, 8.94, 8.67, 8.67, 8.67, 9.39, 9.83, 10.0, 7.26, 6.9, 10.05, 13.28, 16.48, 17.97, 17.43, 13.23, 9.73, 7.27, 7.27, 8.41, 9.17, 10.01, 9.5, 8.85, 8.85, 9.17, 9.76, 10.59, 10.99, 11.77, 11.12, 10.79, 10.01, 10.61, 10.94, 10.94, 10.37, 9.36, 8.85, 10.24, 11.9, 13.35, 13.91, 12.58, 12.04, 12.07, 12.07, 13.41, 15.62, 13.41, 9.74, 9.7, 8.94, 8.49, 7.98, 8.87, 8.89, 8.33, 8.48, 12.14, 14.11, 12.96, 12.07, 10.84, 2.97, -0.0, 1.54, 2.83, 14.3, 14.3, 14.75, 14.75, 14.75, 14.75, 15.2, 15.2, 14.47, 13.44, 11.71, 10.18, 11.03, 10.6, 10.18, 11.28, 11.28, 11.71, 10.8, 8.53, 10.41, 8.93, 10.18, 11.62, 10.73, 10.6, 7.87, 6.64, 7.81, 8.06, 8.94, 9.83, 11.62, 11.62, 11.18, 10.6, 9.3, 9.17, 9.77, 11.0, 15.99, 17.43, 12.65, 9.48, 7.19, 6.4, 6.97, 7.36, 8.22, 9.08, 9.5, 9.5, 8.85, 8.15, 8.15, 9.17, 9.76, 10.59, 11.31, 11.77, 11.6, 10.99, 10.61, 9.82, 9.5, 8.85, 8.24, 7.82, 8.49, 10.54, 11.9, 13.68, 14.39, 14.05, 12.27, 11.18, 11.46, 11.59, 14.3, 13.81, 9.83, 9.39, 8.44, 8.44, 7.31, 8.17, 8.48, 8.17, 10.68, 13.28, 13.41, 12.07, 10.18, -0.0, -1.84, -0.0, 1.47, 2.83, 14.3, 14.3, 14.3, 14.75, 14.75, 14.75, 15.2, 14.75, 14.47, 13.44, 11.71, 9.75, 10.6, 10.18, 10.6, 10.0, 9.67, 10.8, 9.66, 7.51, 4.65, 5.4, 4.24, 11.6, 12.07, 12.07, 11.03, 10.0, 9.6, 8.93, 7.81, 8.4, 8.8, 12.07, 13.01, 10.73, 7.19, 8.31, 9.67, 18.78, -7.2, -0.0, 2.06, 4.39, 6.08, 6.44, 6.92, 7.54, 8.02, 8.53, 8.82, 7.85, 8.53, 8.85, 9.17, 9.76, 10.37, 11.33, 11.99, 12.21, 11.33, 10.87, 10.04, 8.53, 6.63, 6.44, 7.18, 8.1, 8.97, 10.65, 12.03, 13.04, 13.99, 14.95, 14.58, 13.44, 10.73, 10.66, 10.28, 12.0, 9.39, 8.3, 7.53, 7.12, 7.4, 6.91, 7.81, 10.01, 12.27, 13.15, 12.52, 5.6, -0.0, -2.69, -2.58, -0.0, 1.47, 3.82, 14.3, 14.3, 14.3, 14.75, 14.75, 14.75, 14.75, 14.55, 14.03, 13.59, 10.8, 8.18, 10.18, 10.18, 11.45, 7.9, 8.53, 10.01, 9.77, 8.85, 7.19, 4.52, 0.0, 0.0, 4.81, 10.43, 12.65, 13.88, 12.96, 8.58, 7.59, 5.63, 8.18, 9.83, 11.28, 13.15, 10.12, 9.8, 9.8, -7.44, -10.12, -10.79, -4.24, -0.0, 7.59, 5.8, 6.31, 6.94, 7.1, 8.15, 7.85, 7.65, 8.85, 8.85, 10.01, 10.55, 11.26, 12.14, 12.3, 11.85, 10.87, 10.04, 7.26, 5.4, 5.4, 7.18, 8.38, 9.17, 10.23, 11.31, 12.74, 12.87, 13.15, 14.64, 16.0, 15.13, 13.44, 10.23, 9.83, 9.83, 8.6, 6.91, 7.51, 8.6, 8.93, 9.08, 9.36, 9.8, 10.12, 12.96, -0.0, -2.93, -3.15, -3.8, -2.83, -0.0, -0.0, 2.1, 13.86, 14.3, 14.3, 14.3, 14.75, 14.75, 14.75, 14.55, 14.11, 13.15, 10.0, 6.95, 9.2, 10.6, 11.87, 8.94, 8.53, 11.12, 11.12, 11.5, 11.5, 9.48, 8.05, 5.81, 5.64, 9.12, 9.39, 11.38, 14.75, 9.48, 11.45, 11.71, 12.52, 12.52, 11.18, 12.52, 12.58, 9.3, 10.4, -11.62, -12.3, -13.15, -11.38, -0.0, 5.09, 5.31, 5.2, 6.48, 7.24, 7.96, 7.72, 8.02, 8.85, 9.36, 10.01, 10.61, 11.09, 11.45, 11.71, 11.61, 9.97, 6.71, 3.53, 4.72, 5.4, 7.95, 9.8, 10.23, 10.55, 12.08, 12.63, 13.29, 13.83, 14.28, 15.17, 15.01, 13.05, 11.61, 12.35, 14.3, 15.51, 10.6, 7.35, 8.02, 9.42, 9.64, 9.3, 8.83, 10.37, 8.53, -2.71, -4.29, -5.37, -5.31, -3.15, -0.0, -0.0, 2.39, 13.86, 14.3, 14.3, 14.3, 14.75, 14.75, 14.75, 14.55, 14.11, 12.04, 9.3, 6.97, 9.17, 9.17, 10.41, 8.85, 9.17, 9.48, 10.73, 11.99, 12.72, 13.01, 12.39, 12.27, 9.17, 7.9, 6.95, 7.69, 11.06, 14.3, 13.59, 14.11, 13.59, 11.53, 12.52, 11.28, 11.18, 10.84, 8.55, 0.0, -12.96, -12.27, -10.43, -0.0, 3.68, 5.0, 5.6, 8.1, 8.32, 8.85, 9.48, 8.53, 8.53, 9.02, 9.66, 10.09, 10.68, 11.03, 11.46, 10.79, 6.71, 3.39, 2.49, 4.72, 6.2, 8.78, 10.3, 10.62, 11.21, 12.01, 12.47, 13.41, 14.3, 14.75, 14.3, 13.41, 11.59, 11.51, 13.83, 16.07, 16.54, 13.2, 7.76, 5.94, 7.64, 9.08, 9.42, 8.69, 9.8, 7.87, -0.0, -3.76, -5.24, -6.44, -5.1, -2.06, -0.0, -0.0, 13.86, 13.86, 14.3, 14.3, 14.75, 14.75, 14.75, 14.6, 14.11, 12.3, 10.73, 10.12, 7.73, 7.79, 8.31, 8.05, 7.36, 6.6, 8.85, 8.05, 7.78, 8.1, 10.82, 11.17, 8.94, 8.22, 6.64, 5.95, 4.66, 10.12, 12.65, 11.7, 8.68, 0.0, 12.07, 11.18, 10.73, 9.29, 11.28, 12.96, -9.17, -7.19, -3.68, -0.0, 5.7, 5.0, 6.97, 8.53, 9.17, 9.17, 8.32, 8.07, 7.78, 8.22, 8.75, 8.82, 10.09, 10.79, 11.03, 6.45, 2.71, 2.71, 3.68, 4.74, 5.92, 7.95, 9.27, 9.59, 10.35, 11.03, 12.45, 13.28, 14.18, 14.72, 14.27, 12.96, 11.58, 11.58, 12.04, 14.75, 17.43, 16.54, 11.72, 5.69, 5.89, 7.06, 7.68, 8.32, 9.36, 8.48, 2.49, -3.0, -6.23, -7.06, -7.6, -6.64, -0.0, -0.0, 13.86, 13.86, 14.3, 14.75, 14.75, 14.75, 14.75, 14.6, 14.16, 12.89, 11.6, 11.53, 11.28, 10.52, 10.12, 10.12, 9.77, 8.68, 8.05, 8.13, 9.24, 7.8, 9.0, 8.57, 9.44, 9.17, 7.27, 6.17, 5.8, 8.66, 10.12, 9.17, 0.0, -11.18, 5.0, 10.8, 11.51, 11.62, 10.8, 12.39, 10.12, -0.0, -0.0, 3.53, 5.95, 4.6, 5.52, 6.98, 6.98, 6.5, 6.45, 6.48, 6.7, 6.84, 6.15, 6.86, 7.65, 10.04, 10.8, -0.0, 0.93, 2.25, 4.08, 4.34, 4.96, 5.81, 7.5, 8.31, 8.32, 9.66, 11.2, 11.77, 13.47, 13.99, 13.82, 13.86, 12.58, 11.56, 11.62, 13.01, 15.17, 16.09, 15.2, 11.26, 5.72, 5.06, 6.39, 7.59, 8.95, 8.43, 4.43, -0.0, -6.51, -6.71, -8.05, -10.28, -9.83, 8.49, 13.86, 13.86, 14.3, 14.75, 14.75, 14.75, 14.75, 14.6, 14.16, 12.89, 12.33, 12.03, 12.51, 11.44, 11.16, 10.99, 11.76, 13.7, 14.39, 15.19, 15.06, 14.65, 13.99, 14.79, 12.72, 12.3, 11.2, 7.2, 9.58, 9.2, 10.58, 11.62, 11.03, 9.83, 7.59, 8.82, 10.28, 10.35, 7.51, 9.48, 9.8, 4.24, -0.0, -0.0, 3.25, 4.2, 4.8, 3.98, 5.52, 5.52, 4.36, 5.2, 4.81, 4.81, 4.62, 5.57, 7.36, 9.02, 10.41, -1.45, -0.0, 2.54, 4.05, 3.32, 1.95, 3.48, 5.21, 7.15, 7.26, 8.49, 9.17, 9.92, 11.26, 12.39, 12.96, 13.34, 12.14, 11.2, 11.2, 12.72, 13.75, 13.41, 12.22, 14.75, 9.6, 7.33, 6.79, 7.41, 7.82, 8.94, 7.06, 3.4, -7.15, -6.71, -8.24, -8.55, -8.8, -7.6, 13.86, 13.86, 14.3, 14.75, 14.75, 14.75, 14.75, 14.19, 14.19, 13.44, 12.98, 13.39, 13.19, 13.29, 13.42, 14.03, 13.67, 13.15, 12.85, 13.38, 13.38, 13.39, 13.41, 13.41, 13.41, 13.41, 13.41, 13.41, 12.07, 9.83, 10.73, 11.62, 11.46, 11.18, 10.08, 9.83, 8.82, 7.15, 7.26, 8.53, 9.62, 10.01, 3.82, -0.0, -0.0, 2.83, 5.46, 5.7, 6.95, 5.9, 4.0, 2.83, 3.49, 1.93, 2.82, 2.93, 5.6, 10.73, 10.68, -1.32, -2.71, 2.04, 3.12, 0.96, -0.0, 0.89, 2.43, 4.53, 7.1, 7.98, 9.39, 10.12, 10.29, 10.17, 11.98, 12.52, 11.6, 10.8, 11.87, 12.07, 10.73, 11.4, 12.22, 13.01, 12.27, 12.52, 9.6, 8.34, 9.21, 8.49, 8.38, 6.94, 7.6, -6.94, -7.6, -8.8, -8.05, -5.95, 13.86, 13.86, 13.86, 14.3, 14.75, 14.3, 14.3, 14.19, 14.19, 13.88, 13.88, 13.39, 13.48, 13.29, 14.39, 14.13, 15.02, 14.69, 14.53, 14.21, 14.28, 14.28, 14.75, 15.65, 15.65, 15.65, 14.29, 14.29, 13.8, 12.95, 11.62, 11.62, 12.07, 10.73, 10.28, 8.8, 8.05, 8.03, 8.03, 8.38, 10.4, 10.38, 10.6, 10.0, 6.95, 6.95, 5.69, 8.18, 8.93, 7.59, 5.46, 9.6, 13.41, 13.86, 12.52, -11.62, -0.0, 11.09, 13.09, -0.0, -4.48, -0.0, 1.48, -0.0, -0.0, -0.0, -0.0, 1.98, 5.8, 7.36, 9.24, 10.12, 9.67, 8.8, 9.54, 7.9, 4.8, 6.17, 8.43, 9.13, 9.13, 9.89, 12.27, 14.07, 11.72, 13.09, 12.96, 10.73, 8.94, 7.6, 9.33, 7.6, 7.15, -5.95, -8.77, -9.39, -6.44, -2.82, 13.86, 13.86, 13.86, 14.3, 14.3, 14.3, 14.3, 14.19, 14.19, 13.96, 13.96, 13.99, 13.48, 14.11, 14.39, 15.06, 15.44, 15.58, 15.61, 15.41, 15.11, 15.18, 15.65, 16.09, 16.09, 16.54, 16.08, 15.63, 15.15, 14.7, 13.85, 12.52, 12.01, 10.62, 10.28, 9.54, 8.82, 7.33, 9.58, 9.75, 10.32, 11.62, 10.73, 10.73, 8.4, 8.48, 8.48, 7.07, 7.44, 6.95, 9.2, 10.28, 9.83, 8.49, 8.49, 8.05, 0.0, 9.21, 12.48, 6.44, -2.71, -0.0, -0.0, -0.0, -0.0, -0.0, -0.0, 2.71, 4.8, 7.26, 7.65, 10.56, 10.73, 10.47, 10.28, 4.4, 4.6, 6.83, 8.03, 9.16, 10.0, 10.5, 10.41, 10.58, 10.28, 12.52, 13.41, 11.14, 9.36, 9.26, 9.68, 8.49, 6.94, 0.0, -7.2, -1.4, -0.0, -0.0, 13.86, 13.86, 13.86, 14.3, 14.3, 14.3, 14.3, 14.22, 14.22, 14.22, 14.4, 13.99, 14.13, 14.11, 14.7, 14.65, 15.27, 16.0, 16.41, 16.29, 15.99, 16.0, 16.07, 16.54, 16.54, 16.52, 16.48, 16.08, 15.63, 15.19, 15.19, 15.2, 13.84, 11.55, 10.28, 8.48, 6.95, 6.95, 10.0, 10.62, 10.28, 10.73, 10.73, 9.83, 9.39, 8.49, 8.06, 6.7, 2.54, 3.8, 6.01, 8.49, 7.6, 7.6, 7.2, 8.05, 7.6, 8.8, 11.62, 5.98, 1.45, 2.1, 4.6, 5.46, 6.64, 4.2, 6.01, 6.95, 5.7, 6.44, 8.54, 10.24, 12.52, 11.35, 11.18, 4.4, 5.4, 8.72, 10.12, 10.58, 10.28, 10.29, 10.63, 10.73, 10.52, 9.29, 10.04, 9.83, 8.94, 8.91, 9.36, 7.11, 7.6, 7.4, 5.82, 3.14, 0.94, 0.94, 13.86, 13.86, 14.3, 13.86, 13.86, 14.3, 14.3, 14.66, 14.22, 14.22, 14.4, 14.47, 14.56, 14.56, 14.7, 14.7, 14.84, 15.81, 16.33, 16.66, 16.29, 15.99, 16.07, 16.09, 16.02, 16.03, 16.08, 16.08, 16.09, 16.54, 16.99, 16.99, 16.08, 14.23, 8.77, 8.94, 7.81, 9.96, 10.18, 10.28, 10.65, 8.94, 9.83, 8.49, 9.39, 8.94, 7.44, 4.71, 2.69, 4.0, 6.32, 6.64, 6.64, 7.81, 7.81, 9.11, 9.83, 10.08, 9.58, 7.26, 5.75, 6.17, 6.95, 8.4, 8.4, 7.63, 8.94, 8.49, -0.0, 9.2, 10.73, 10.6, 11.8, 10.88, 9.67, 3.73, 6.6, 10.25, 12.16, 11.87, 11.9, 11.53, 11.64, 11.34, 10.73, 9.54, 7.89, 8.38, 8.49, 8.49, 9.39, 8.05, 7.56, 7.98, 8.55, 5.63, 3.3, 3.3, 13.75, 13.86, 14.3, 14.3, 13.86, 13.86, 14.3, 14.3, 14.66, 14.66, 14.47, 14.9, 14.56, 14.56, 14.66, 14.66, 14.84, 15.38, 16.17, 16.22, 15.97, 15.85, 15.62, 15.2, 15.47, 16.03, 16.54, 16.54, 16.52, 17.42, 17.37, 17.87, 17.86, 16.01, 12.24, 8.38, 8.67, 10.08, 10.32, 10.2, 9.64, 9.39, 8.49, 8.49, 8.94, 7.81, 6.32, 6.32, 6.64, 6.64, 6.64, 6.95, 6.95, 6.95, 7.87, 8.8, 9.13, 8.82, 8.38, 8.73, 7.9, 8.23, 7.87, 8.72, 9.21, 8.24, 8.05, 6.01, 3.11, 9.58, 12.22, 11.71, 12.75, 14.75, 11.38, 7.2, 9.91, 12.65, 13.51, 13.83, 13.19, 13.28, 13.15, 12.09, 11.0, 8.94, 8.67, 7.6, 7.89, 10.28, 9.77, 8.06, 7.28, 8.48, 8.37, 6.3, 4.98, 4.98, 13.75, 13.86, 13.86, 14.3, 13.86, 13.86, 14.3, 14.3, 14.66, 14.66, 14.47, 14.9, 15.34, 14.99, 14.56, 15.91, 14.23, 15.18, 15.43, 15.16, 15.53, 15.67, 15.12, 16.47, 15.2, 16.54, 13.77, 16.82, 17.26, 15.91, 17.24, 17.8, 17.86, 17.41, 15.54, 12.14, 8.8, 7.92, 8.8, 10.75, 10.18, 10.28, 10.28, 9.54, 8.18, 7.87, 7.87, 7.51, 7.51, 7.51, 6.95, 6.95, 6.95, 7.87, 7.87, 8.82, 8.43, 9.2, 8.73, 8.73, 9.2, 9.55, 9.13, 7.89, 8.77, 8.49, 8.49, 8.3, 6.95, 10.04, 13.77, 15.62, 18.52, 18.52, 17.02, 15.06, 14.99, 15.05, 15.43, 15.45, 14.28, 14.3, 13.86, 12.52, 11.62, 10.28, 10.28, 11.18, 10.41, 10.73, 9.13, 8.58, 8.56, 8.56, 9.04, 6.95, 6.42, 6.42, 13.75, 13.86, 13.86, 13.86, 13.86, 13.86, 14.3, 14.3, 14.66, 14.68, 14.68, 14.9, 15.34, 15.09, 15.09, 14.66, 14.23, 14.13, 15.18, 15.11, 16.71, 15.27, 14.61, 15.24, 14.79, 15.27, 16.12, 15.67, 16.58, 16.76, 17.41, 17.41, 17.43, 17.43, 16.99, 15.05, 12.3, 10.73, 9.6, 8.3, 8.92, 9.39, 9.24, 8.99, 8.0, 9.2, 8.43, 8.43, 8.05, 7.51, 7.51, 7.51, 7.51, 7.51, 7.15, 7.33, 8.93, 7.56, 8.55, 9.96, 9.55, 9.54, 9.54, 9.21, 8.33, 8.49, 8.94, 9.39, 9.97, 11.57, 13.38, 15.71, 18.17, 19.69, 18.7, 16.96, 15.16, 14.38, 15.27, 15.01, 15.11, 15.11, 14.65, 13.29, 12.03, 11.18, 10.24, 9.75, 10.84, 9.6, 9.96, 11.35, 11.58, 9.79, 9.11, 9.2, 7.27, 7.27, 13.75, 13.86, 13.86, 13.86, 13.86, 13.86, 13.86, 14.3, 14.66, 15.12, 14.68, 14.9, 15.34, 15.39, 15.09, 15.09, 13.86, 13.86, 11.6, 14.11, 15.96, 15.58, 15.27, 14.39, 15.19, 16.02, 15.71, 16.76, 17.34, 17.86, 17.88, 17.43, 17.43, 17.41, 16.99, 16.54, 14.71, 12.83, 11.51, 10.26, 9.39, 9.81, 9.74, 9.58, 8.91, 10.18, 9.13, 9.13, 8.72, 8.72, 8.3, 8.0, 7.15, 7.51, 6.95, 6.32, 7.27, 6.77, 8.38, 9.13, 9.54, 9.54, 9.83, 9.83, 8.94, 8.77, 9.11, 9.83, 10.65, 11.13, 12.1, 14.05, 17.22, 19.69, 18.78, 15.83, 11.74, 12.09, 12.87, 13.83, 15.08, 15.45, 15.18, 14.3, 13.41, 11.62, 10.68, 9.42, 9.83, 9.85, 9.39, 12.52, 12.52, 9.83, 9.32, 8.4, 7.21, 7.21, 13.75, 13.86, 13.86, 13.86, 13.86, 13.86, 13.86, 14.3, 14.68, 15.12, 15.12, 14.9, 14.95, 15.39, 15.09, 15.09, 14.28, 13.99, 13.62, 15.2, 16.12, 16.22, 15.68, 15.38, 16.33, 17.35, 17.2, 16.52, 16.54, 16.99, 17.43, 17.43, 17.41, 17.41, 16.96, 16.96, 15.65, 13.86, 12.52, 11.18, 10.28, 9.82, 9.37, 9.29, 8.71, 7.81, 9.75, 9.7, 9.21, 8.77, 7.89, 7.6, 6.79, 5.36, 5.36, 5.06, 4.4, 4.8, 7.59, 8.43, 8.48, 8.91, 9.39, 9.39, 9.11, 9.11, 9.21, 9.64, 8.82, 7.9, 6.7, 10.43, 14.51, 17.43, 9.66, 7.49, 9.17, 9.81, 10.59, 10.7, 12.52, 13.75, 14.99, 14.3, 13.86, 11.59, 10.24, 9.34, 9.39, 11.09, 11.15, 11.36, 11.33, 8.9, 8.41, 7.6, 6.98, 6.98, 13.75, 13.75, 13.86, 13.86, 13.86, 13.86, 14.3, 14.3, 14.68, 15.12, 15.12, 15.12, 15.39, 15.39, 15.39, 15.09, 14.75, 13.99, 14.19, 15.58, 16.12, 15.82, 14.9, 14.9, 16.26, 17.31, 17.77, 17.41, 16.99, 16.09, 16.54, 16.54, 16.54, 16.54, 16.52, 16.52, 16.07, 14.73, 12.96, 11.62, 10.73, 10.26, 9.81, 8.92, 7.95, 7.37, 9.74, 9.39, 8.94, 8.24, 7.81, 7.6, 6.01, 5.1, 4.0, 3.32, 1.33, 3.25, 6.87, 7.28, 8.67, 8.94, 9.39, 8.94, 8.0, 7.81, 8.4, 8.4, 5.46, 1.84, -0.0, 6.94, 18.37, 16.66, 10.0, 0.0, 3.47, 7.57, 8.5, 9.16, 10.01, 11.54, 12.56, 13.44, 13.75, 12.04, 10.25, 9.24, 9.97, 11.36, 12.33, 10.68, 10.04, 8.94, 8.33, 8.06, 7.07, 7.07, 13.75, 13.75, 13.86, 13.86, 13.86, 13.86, 13.86, 14.3, 14.75, 15.12, 15.12, 15.57, 15.39, 15.39, 15.39, 15.09, 15.18, 14.31, 14.95, 15.47, 15.98, 16.48, 15.61, 14.31, 14.97, 16.44, 17.34, 17.41, 17.41, 16.99, 16.09, 16.09, 16.09, 16.09, 16.07, 16.07, 16.07, 15.18, 13.39, 11.6, 10.26, 9.82, 10.26, 10.26, 8.92, 7.57, 9.83, 9.39, 8.94, 8.67, 8.0, 7.6, 6.01, 6.01, 3.8, 2.06, -0.0, 1.75, 6.17, 8.93, 7.81, 8.49, 8.49, 6.01, 4.0, 6.64, 4.83, 5.06, 2.83, -0.0, -0.0, 13.99, 17.86, 18.68, 16.82, 14.03, 10.41, 6.44, 8.31, 7.74, 7.85, 9.37, 10.47, 11.05, 11.44, 10.68, 10.01, 9.33, 8.82, 9.34, 9.26, 9.39, 9.39, 8.94, 8.49, 8.06, 7.67, 7.67, 13.75, 13.75, 13.86, 13.86, 13.86, 13.86, 13.86, 14.3, 14.75, 15.12, 15.12, 15.12, 15.58, 15.39, 15.39, 15.39, 15.18, 14.75, 14.81, 15.47, 15.55, 16.41, 16.48, 16.05, 15.23, 15.43, 16.89, 17.34, 17.41, 16.97, 16.99, 16.54, 15.65, 15.65, 16.07, 16.07, 16.07, 15.55, 14.22, 12.0, 10.22, 9.77, 9.82, 10.26, 9.81, 9.39, 8.05, 8.49, 8.94, 9.35, 8.77, 10.08, 7.6, 6.7, 4.71, 4.71, 2.69, -0.0, 4.0, 8.4, 9.21, 8.33, 8.94, -0.0, 2.28, 3.49, 2.58, 2.28, 2.82, 7.27, 7.9, 11.6, 16.49, 17.7, 18.54, 18.32, 17.39, 16.82, 14.18, 7.24, 7.63, 8.38, 10.01, 11.11, 10.55, 9.3, 9.03, 8.3, 8.6, 8.82, 8.54, 9.21, 9.46, 9.39, 8.94, 8.77, 6.98, 6.98, 13.75, 13.75, 13.75, 13.86, 13.86, 13.86, 13.86, 14.3, 14.75, 14.68, 15.12, 15.12, 15.58, 15.58, 15.39, 15.39, 15.43, 15.25, 15.25, 15.3, 15.34, 15.55, 16.48, 16.48, 16.05, 15.67, 15.87, 16.78, 17.34, 17.41, 16.97, 16.99, 16.54, 16.54, 16.09, 16.07, 16.07, 15.99, 15.55, 13.33, 11.11, 10.21, 9.76, 9.75, 10.26, 10.26, 9.83, 8.49, 8.94, 9.39, 9.36, 8.46, 9.7, 8.24, 7.07, 7.07, 5.69, 7.2, 8.05, 8.94, 9.7, 9.89, 8.48, -0.0, -0.0, 1.47, 1.45, 1.52, 3.82, 8.55, 10.52, 12.3, 13.41, 16.46, 17.25, 17.38, 17.33, 18.08, 16.09, 10.61, 6.96, 7.93, 9.3, 9.76, 9.21, 9.05, 8.55, 8.06, 8.94, 7.89, 8.4, 9.49, 10.45, 10.28, 9.83, 8.72, 7.81, 7.81, 13.75, 13.75, 13.75, 13.86, 13.86, 13.86, 13.86, 13.86, 14.3, 14.68, 15.12, 15.12, 15.57, 15.14, 15.39, 15.39, 15.43, 15.43, 15.25, 15.3, 15.3, 15.34, 15.78, 16.05, 16.05, 16.1, 15.67, 16.31, 16.89, 16.89, 16.96, 16.96, 16.99, 16.99, 16.54, 16.54, 16.54, 16.54, 16.51, 15.62, 13.76, 11.89, 10.54, 9.67, 10.11, 10.2, 10.26, 9.39, 8.94, 8.94, 8.94, 8.94, 8.05, 7.6, 7.89, 7.21, 7.63, 7.6, 6.79, 7.21, 9.39, 9.34, 10.58, 6.32, -0.0, 1.54, 1.76, 4.6, 6.95, 9.97, 11.18, 11.28, 12.31, 13.86, 14.31, 14.68, 17.25, 17.75, 16.09, 11.28, 6.44, 5.99, 7.93, 8.49, 8.22, 8.59, 8.3, 8.06, 8.49, 8.67, 8.82, 10.23, 11.36, 11.44, 10.84, 9.32, 9.1, 9.1, 13.75, 13.75, 13.75, 13.86, 13.86, 13.86, 13.86, 13.86, 14.3, 14.3, 14.68, 15.12, 15.12, 15.14, 15.14, 14.95, 15.43, 15.43, 15.25, 15.3, 15.3, 15.34, 15.34, 15.38, 15.61, 15.61, 15.67, 15.85, 16.31, 16.44, 16.51, 16.51, 16.99, 16.99, 16.99, 16.54, 16.54, 16.99, 16.99, 16.06, 14.72, 12.86, 10.96, 9.5, 9.97, 9.57, 10.13, 9.83, 8.94, 8.92, 8.91, 8.47, 8.49, 7.6, 7.15, 7.6, 7.6, 7.6, 6.79, 7.21, 8.05, 8.94, 9.83, 7.81, -0.0, 1.84, 4.8, 7.27, 9.83, 10.28, 11.18, 12.0, 11.99, 11.99, 12.79, 14.21, 16.47, 16.02, 13.83, 11.14, 7.6, 6.36, 7.11, 6.62, 7.85, 8.57, 8.23, 7.6, 9.29, 9.83, 10.28, 11.18, 11.91, 11.68, 10.81, 10.18, 9.81, 9.81, 13.75, 13.75, 13.77, 13.86, 13.86, 13.86, 13.86, 14.3, 14.3, 14.3, 14.75, 15.12, 15.57, 15.58, 15.58, 14.95, 14.99, 14.99, 15.02, 14.86, 15.3, 15.34, 15.34, 15.38, 15.38, 15.38, 15.38, 15.85, 16.29, 16.44, 16.44, 16.51, 16.51, 16.51, 16.54, 16.54, 16.54, 16.99, 16.99, 16.54, 15.61, 13.29, 11.51, 9.64, 9.21, 9.39, 10.6, 11.62, 11.53, 9.37, 8.85, 8.91, 8.46, 8.01, 6.66, 6.65, 7.37, 7.6, 7.15, 7.6, 7.6, 8.67, 9.29, 5.21, -0.0, 1.45, 3.77, 6.42, 9.54, 10.28, 11.18, 12.47, 12.37, 12.1, 11.76, 13.15, 14.7, 14.17, 13.62, 12.03, 9.33, 10.6, 8.85, 6.88, 5.04, 6.28, 6.95, 8.37, 9.86, 10.75, 10.96, 11.28, 10.24, 10.94, 11.03, 10.66, 9.92, 9.92, 13.75, 13.75, 13.77, 13.86, 13.86, 13.86, 13.86, 14.3, 14.3, 14.3, 14.3, 15.12, 15.12, 15.58, 16.03, 15.39, 14.99, 14.99, 15.02, 14.81, 15.3, 15.3, 15.34, 15.34, 15.38, 15.38, 14.94, 15.38, 15.85, 15.98, 15.99, 15.99, 16.07, 16.07, 16.51, 16.54, 16.54, 16.54, 16.99, 16.99, 16.09, 14.27, 12.48, 9.81, 8.02, 9.79, 12.04, 13.39, 13.29, 12.31, 10.96, 8.9, 8.36, 7.45, 6.55, 6.51, 6.88, 6.88, 7.6, 7.15, 6.94, 8.37, 8.49, 2.28, 1.84, -0.0, 1.62, 6.44, 8.4, 9.83, 10.46, 11.88, 12.93, 13.65, 13.75, 13.76, 13.51, 12.79, 13.75, 13.83, 13.41, 12.95, 12.62, 12.18, 8.72, 8.73, 8.59, 10.55, 11.2, 12.14, 12.07, 10.41, 9.88, 10.62, 10.66, 10.9, 10.53, 10.53, 13.31, 13.31, 13.77, 13.86, 13.86, 13.86, 13.86, 14.3, 14.3, 14.75, 14.75, 14.3, 15.12, 15.14, 15.58, 15.58, 15.43, 15.43, 15.46, 15.46, 15.3, 15.3, 15.34, 15.34, 15.34, 15.34, 14.94, 14.5, 15.08, 15.54, 15.98, 15.55, 15.54, 15.62, 16.07, 16.06, 16.54, 16.54, 16.54, 16.99, 16.54, 15.2, 12.96, 10.73, 8.94, 10.23, 12.83, 14.23, 14.27, 13.41, 11.62, 9.39, 6.66, 6.51, 5.64, 5.16, 6.57, 6.99, 6.99, 6.64, 6.79, 8.38, 8.06, 2.83, 2.83, 3.8, -0.0, 8.8, 10.08, 10.28, 9.04, 10.32, 12.52, 14.73, 16.47, 15.36, 13.49, 12.18, 13.02, 15.34, 16.47, 16.52, 15.19, 15.14, 15.34, 15.36, 14.38, 14.56, 13.59, 12.96, 12.3, 10.37, 10.79, 10.56, 11.04, 11.26, 10.87, 10.87, 13.33, 13.33, 13.33, 13.86, 13.86, 13.86, 13.86, 14.3, 14.3, 14.75, 14.75, 14.75, 14.68, 15.58, 15.58, 15.58, 15.43, 15.87, 15.91, 15.91, 15.93, 15.74, 15.3, 15.34, 15.34, 15.34, 14.9, 14.03, 16.04, 14.64, 15.53, 15.97, 15.97, 15.62, 15.62, 16.06, 16.09, 16.54, 16.54, 16.54, 16.54, 15.65, 13.86, 11.18, 10.26, 10.98, 12.69, 14.73, 13.86, 12.52, 10.28, 8.05, 7.15, 6.67, 5.78, 4.24, 5.09, 6.79, 6.99, 6.7, 6.61, 7.6, 7.07, 7.07, 7.44, 7.6, 8.05, 6.64, 9.75, 10.62, 9.83, 10.28, 11.2, 15.12, 18.78, 19.42, 12.79, 9.42, 11.33, 13.57, 16.25, 16.92, 16.54, 16.09, 16.54, 16.53, 16.93, 16.03, 14.3, 12.81, 11.39, 10.73, 11.2, 10.99, 11.02, 11.2, 10.8, 10.8, 13.33, 13.33, 13.33, 13.86, 13.86, 13.86, 13.86, 14.3, 14.3, 14.75, 14.75, 14.75, 14.68, 14.68, 15.58, 15.58, 15.43, 15.43, 15.46, 15.91, 15.91, 15.74, 15.74, 15.3, 14.9, 14.9, 14.9, 14.03, 13.59, 15.43, 14.62, 15.51, 15.95, 16.06, 16.06, 16.06, 16.09, 16.54, 16.54, 16.54, 16.54, 16.09, 14.3, 12.07, 10.7, 11.54, 12.88, 13.84, 13.86, 11.62, 9.37, 8.92, 8.92, 8.02, 7.12, 6.23, 5.78, 5.29, 6.17, 6.02, 5.77, 7.06, 8.67, 7.63, 8.06, 8.05, 8.05, 6.01, 8.18, 10.52, 10.14, 7.59, 11.03, 14.25, 19.21, 23.23, 14.31, 6.7, 8.53, 12.51, 14.66, 16.07, 16.09, 16.54, 16.99, 17.88, 17.87, 16.54, 14.28, 12.58, 11.62, 10.8, 10.99, 11.76, 11.96, 11.68, 10.68, 10.68, 13.33, 13.33, 13.33, 13.41, 13.86, 13.86, 13.86, 14.3, 14.3, 14.75, 14.75, 15.2, 14.68, 14.68, 15.14, 15.58, 15.43, 15.43, 15.43, 15.91, 15.91, 16.37, 15.93, 15.74, 14.86, 14.9, 14.9, 14.47, 14.31, 14.5, 14.5, 15.08, 15.51, 15.61, 16.06, 16.05, 16.09, 16.09, 16.54, 16.54, 16.54, 16.54, 15.2, 12.96, 11.62, 11.6, 12.5, 13.83, 13.83, 12.05, 9.82, 9.32, 9.29, 8.84, 7.94, 7.13, 6.68, 6.23, 4.92, 4.92, 7.6, 7.63, 7.63, 8.49, 7.6, 7.6, 8.05, 7.63, 8.4, 10.28, 9.33, 10.4, 12.07, 13.07, 17.39, 21.9, 17.36, 14.23, 13.41, 13.79, 14.64, 15.57, 16.52, 16.97, 16.97, 16.99, 17.43, 16.05, 13.67, 11.87, 11.3, 11.03, 11.21, 11.71, 11.71, 11.61, 11.37, 11.37, 13.33, 13.33, 13.33, 13.41, 13.86, 13.86, 13.86, 14.3, 14.75, 14.75, 15.2, 15.2, 15.12, 14.68, 14.68, 15.14, 15.14, 14.99, 14.99, 15.46, 15.91, 15.91, 15.93, 15.93, 15.49, 15.05, 14.9, 14.47, 14.47, 14.94, 14.94, 15.08, 15.08, 15.17, 15.61, 15.61, 16.09, 16.09, 16.54, 16.54, 16.54, 16.04, 15.15, 13.37, 12.07, 11.62, 12.52, 13.38, 13.38, 12.94, 10.65, 10.19, 9.29, 8.84, 8.38, 7.5, 7.06, 6.68, 6.23, 5.36, 4.92, 8.05, 8.05, 8.05, 8.49, 8.49, 7.6, 8.49, 8.67, 9.39, 9.83, 11.28, 12.96, 13.38, 15.55, 17.43, 18.65, 16.54, 15.87, 15.65, 14.87, 15.47, 16.13, 16.4, 16.08, 15.65, 15.09, 13.65, 12.14, 11.56, 10.68, 10.0, 11.03, 11.28, 11.91, 11.93, 11.8, 11.8, 13.33, 13.33, 13.33, 13.41, 13.86, 13.86, 14.3, 14.3, 14.75, 14.75, 15.2, 15.2, 15.12, 14.68, 14.68, 15.14, 15.14, 14.99, 14.99, 15.43, 15.46, 15.91, 15.91, 15.93, 15.49, 15.05, 14.9, 14.47, 14.47, 14.94, 14.94, 14.94, 14.64, 14.64, 14.72, 15.16, 15.61, 15.65, 16.09, 16.09, 16.09, 16.09, 15.58, 13.36, 12.04, 11.62, 12.07, 12.96, 13.38, 12.94, 11.52, 10.18, 9.74, 9.28, 8.38, 7.94, 7.48, 7.04, 6.68, 5.78, 5.33, 5.36, 8.05, 7.6, 8.05, 8.94, 8.05, 8.49, 8.94, 8.94, 10.73, 10.08, 13.28, 13.28, 14.75, 15.2, 15.9, 17.44, 18.96, 19.67, 18.1, 15.04, 14.07, 14.09, 13.86, 13.31, 12.68, 11.71, 11.13, 10.7, 10.6, 10.46, 11.13, 11.44, 11.59, 12.04, 11.95, 11.95, 12.88, 12.88, 13.33, 13.41, 13.86, 13.86, 14.3, 14.3, 14.75, 14.75, 15.2, 15.2, 15.2, 15.12, 14.68, 14.69, 15.14, 15.15, 14.99, 15.43, 15.46, 15.46, 15.91, 15.93, 15.49, 15.05, 14.86, 14.47, 14.47, 14.9, 14.94, 14.94, 14.64, 14.62, 14.72, 14.71, 14.71, 15.2, 15.65, 16.09, 16.09, 16.09, 15.12, 12.88, 10.25, 10.73, 11.62, 12.49, 12.94, 12.93, 11.95, 11.06, 10.16, 9.72, 8.82, 7.92, 7.48, 7.45, 6.67, 6.23, 5.78, 5.33, 8.05, 7.6, 8.05, 8.94, 8.05, 8.49, 8.94, 8.94, 9.39, 9.75, 11.62, 14.47, 14.73, 14.28, 14.65, 16.52, 19.16, 20.9, 19.1, 14.69, 13.31, 12.96, 12.52, 12.39, 12.27, 10.89, 10.84, 10.78, 11.13, 11.4, 11.4, 12.02, 12.03, 11.62, 12.07, 12.05, 12.88, 12.88, 13.33, 13.41, 13.86, 13.86, 14.3, 14.3, 14.75, 14.75, 15.2, 15.2, 15.2, 15.2, 15.12, 14.68, 14.69, 15.14, 15.15, 15.43, 15.43, 15.46, 15.46, 15.91, 15.49, 14.86, 14.42, 14.47, 14.47, 14.47, 14.9, 14.62, 14.62, 14.62, 14.71, 14.71, 14.26, 15.15, 15.2, 15.65, 15.65, 16.09, 14.75, 12.07, 9.81, 10.73, 11.54, 12.3, 13.15, 12.83, 12.37, 11.49, 10.6, 9.7, 8.82, 8.36, 7.48, 7.45, 6.58, 6.14, 5.7, 5.24, 7.81, 7.15, 7.6, 8.49, 8.49, 8.05, 8.49, 8.49, 8.94, 10.28, 11.71, 13.7, 16.0, 14.75, 14.19, 15.08, 16.91, 18.88, 16.97, 15.2, 14.3, 13.41, 12.93, 12.83, 12.27, 11.36, 11.33, 11.28, 11.44, 11.4, 11.57, 12.07, 12.07, 12.07, 12.05, 12.07, 12.88, 12.88, 12.88, 13.41, 13.86, 13.86, 14.3, 14.3, 14.75, 14.75, 15.2, 15.2, 15.2, 15.2, 15.12, 14.68, 14.69, 14.69, 15.15, 15.15, 15.43, 15.46, 15.46, 15.46, 15.49, 14.86, 14.42, 14.42, 14.03, 14.03, 14.47, 14.62, 14.62, 14.62, 14.27, 14.71, 14.26, 14.26, 15.15, 15.2, 15.65, 15.65, 14.75, 12.0, 10.73, 12.05, 13.67, 13.88, 13.99, 13.7, 12.81, 11.91, 10.58, 10.14, 8.82, 8.36, 7.92, 7.45, 7.01, 6.58, 6.14, 5.67, 5.2, 7.81, 8.05, 7.63, 7.37, 7.63, 8.05, 8.49, 8.94, 8.94, 11.62, 12.96, 14.66, 14.7, 15.12, 15.12, 15.56, 14.93, 14.73, 14.75, 14.73, 14.27, 13.37, 12.93, 12.83, 11.93, 11.91, 11.93, 11.58, 11.57, 11.62, 12.07, 12.07, 12.03, 11.96, 12.05, 12.88, 12.88, 12.88, 13.41, 13.41, 13.86, 13.86, 14.3, 14.3, 14.75, 14.75, 14.75, 15.2, 15.2, 14.75, 14.68, 14.69, 14.69, 14.7, 15.15, 14.99, 15.02, 15.02, 15.46, 15.3, 15.3, 14.42, 13.99, 13.99, 14.03, 14.03, 14.62, 14.62, 14.6, 14.27, 14.26, 14.26, 13.81, 14.26, 14.69, 14.69, 15.12, 14.23, 12.22, 10.92, 12.51, 14.94, 15.3, 14.55, 14.26, 13.81, 12.47, 10.68, 9.79, 8.8, 8.36, 7.89, 7.42, 7.42, 6.98, 6.36, 5.51, 7.06, 6.94, 7.21, 7.63, 7.21, 8.24, 7.21, 8.05, 8.49, 8.94, 10.18, 11.18, 12.39, 14.42, 17.0, 18.31, 14.67, 11.76, 11.57, 12.52, 13.36, 12.81, 12.81, 12.47, 12.02, 11.88, 11.46, 11.59, 11.58, 11.62, 11.62, 12.07, 12.07, 12.03, 11.91, 11.91, 12.44, 12.44, 12.88, 12.96, 13.41, 13.41, 13.86, 14.3, 14.3, 14.3, 14.75, 14.75, 14.75, 14.75, 14.75, 14.75, 14.68, 14.69, 14.69, 14.55, 14.99, 14.99, 15.02, 15.02, 14.81, 14.86, 14.42, 13.99, 13.99, 13.55, 13.59, 13.74, 14.16, 14.16, 14.16, 13.7, 13.7, 13.36, 13.81, 14.25, 14.25, 14.25, 13.63, 12.08, 11.14, 12.63, 14.47, 15.15, 14.3, 13.86, 13.41, 12.07, 9.83, 9.39, 8.94, 8.45, 8.0, 7.85, 7.85, 7.21, 6.79, 6.13, 5.2, 6.8, 7.21, 7.6, 7.81, 7.81, 6.79, 8.05, 8.49, 8.49, 9.75, 9.64, 11.4, 13.31, 16.09, 19.61, 16.92, 12.03, 11.18, 11.55, 11.93, 12.41, 12.41, 12.03, 11.57, 11.57, 11.58, 11.62, 11.62, 11.62, 11.62, 11.62, 12.03, 11.93, 11.93, 11.93, 12.44, 12.44, 12.88, 12.96, 13.41, 13.41, 13.86, 13.86, 13.86, 14.3, 14.3, 14.75, 14.75, 14.75, 14.75, 14.75, 14.68, 14.69, 14.69, 14.55, 14.99, 14.99, 15.02, 14.81, 14.81, 14.86, 14.42, 13.99, 13.55, 13.55, 13.11, 13.28, 13.28, 13.72, 14.14, 13.25, 13.23, 13.23, 13.23, 13.19, 13.63, 13.63, 13.19, 11.71, 11.11, 12.46, 14.16, 14.26, 13.41, 12.52, 12.07, 11.18, 9.39, 9.39, 8.94, 8.94, 8.05, 8.0, 7.85, 7.85, 7.21, 6.94, 6.13, 7.06, 7.37, 7.6, 8.05, 8.05, 7.15, 7.6, 8.05, 8.49, 8.4, 9.2, 9.7, 10.55, 14.18, 17.36, 18.17, 16.33, 14.75, 14.75, 14.87, 13.69, 12.94, 12.52, 12.07, 12.07, 12.07, 11.59, 11.59, 11.59, 11.58, 11.95, 11.95, 11.95, 11.95, 11.95, 12.44, 12.44, 12.88, 12.96, 13.41, 13.41, 13.86, 13.86, 14.3, 14.3, 14.3, 14.75, 14.75, 14.75, 14.75, 14.75, 14.68, 14.69, 14.69, 14.55, 14.99, 14.99, 15.02, 14.81, 14.81, 14.81, 14.42, 13.99, 13.55, 13.11, 13.11, 13.28, 13.28, 13.25, 13.25, 13.25, 12.79, 13.23, 13.19, 13.19, 13.19, 13.19, 12.75, 11.28, 10.84, 11.76, 13.25, 13.36, 13.36, 12.07, 11.18, 10.28, 8.94, 8.94, 8.49, 8.49, 8.05, 8.05, 7.55, 7.85, 7.63, 6.94, 6.54, 5.6, 7.2, 8.05, 8.05, 6.79, 6.8, 7.21, 8.94, 8.49, 8.4, 9.2, 9.86, 10.46, 12.47, 14.72, 16.53, 16.44, 15.33, 17.12, 19.25, 17.91, 13.84, 13.41, 12.96, 12.93, 12.39, 11.8, 12.31, 10.84, 11.28, 11.8, 11.8, 11.36, 11.36, 11.36, 12.44, 12.44, 12.88, 12.96, 12.96, 13.41, 13.41, 13.86, 14.3, 14.3, 14.3, 14.3, 14.75, 14.75, 14.75, 14.75, 14.68, 14.69, 14.69, 14.51, 14.55, 14.99, 14.75, 14.81, 14.81, 14.81, 14.37, 13.99, 13.55, 13.55, 13.11, 12.83, 12.81, 12.81, 12.81, 12.81, 12.79, 12.79, 13.19, 12.75, 12.75, 12.75, 12.75, 11.46, 10.84, 11.91, 12.79, 12.92, 12.92, 12.03, 11.14, 9.83, 8.94, 8.49, 8.05, 8.05, 8.05, 8.05, 7.6, 7.55, 7.42, 7.21, 6.54, 6.13, 5.44, 8.33, 8.05, 7.15, 7.6, 7.81, 8.05, 8.24, 8.67, 9.64, 10.08, 10.73, 11.62, 12.93, 14.06, 13.59, 13.51, 16.72, 19.51, 17.88, 15.66, 14.21, 13.38, 13.18, 12.46, 12.18, 11.56, 10.38, 10.79, 11.45, 11.11, 11.11, 11.11, 11.11, 12.44, 12.44, 12.88, 12.96, 13.41, 13.41, 13.41, 13.86, 13.86, 14.3, 14.3, 14.3, 14.75, 14.75, 14.75, 14.68, 14.68, 14.69, 14.51, 14.51, 14.55, 14.99, 14.75, 14.81, 14.81, 14.81, 14.37, 13.94, 13.55, 13.55, 13.07, 12.63, 12.63, 12.2, 12.2, 12.14, 12.35, 12.35, 12.75, 12.75, 12.75, 12.75, 12.75, 11.88, 11.02, 11.91, 12.35, 12.47, 12.47, 11.57, 10.69, 9.8, 8.91, 8.46, 8.05, 8.01, 8.01, 7.56, 8.01, 7.56, 7.11, 6.98, 6.55, 5.94, 5.64, 8.33, 7.6, 8.05, 8.49, 7.81, 8.24, 8.06, 8.94, 9.39, 10.28, 10.73, 11.18, 12.47, 12.3, 10.94, 11.76, 15.59, 19.1, 19.08, 17.33, 15.22, 13.41, 13.21, 12.21, 10.8, 10.16, 10.4, 10.21, 10.17, 10.32, 10.43, 10.43, 10.43, 12.44, 12.44, 12.88, 12.96, 12.96, 13.41, 13.86, 13.86, 13.86, 13.86, 14.3, 14.3, 14.3, 14.75, 14.68, 14.68, 14.68, 14.69, 14.51, 14.07, 14.07, 14.31, 14.75, 14.75, 14.81, 14.81, 14.37, 13.94, 13.5, 13.5, 13.07, 13.07, 12.63, 12.2, 12.2, 11.71, 11.71, 12.31, 12.31, 12.31, 12.31, 12.31, 12.31, 11.88, 11.0, 11.91, 12.31, 12.47, 12.02, 11.13, 10.69, 10.25, 9.36, 8.91, 8.01, 7.57, 7.57, 7.57, 7.56, 7.56, 7.56, 6.66, 6.22, 5.32, 4.87, 7.81, 7.37, 7.37, 8.05, 8.05, 8.94, 8.06, 8.67, 9.39, 9.83, 10.28, 10.73, 11.28, 11.03, 10.25, 11.31, 13.59, 16.06, 17.44, 19.19, 18.37, 16.03, 12.88, 10.99, 10.04, 9.27, 9.46, 8.94, 9.2, 9.81, 10.0, 10.0, 10.0, 12.44, 12.44, 12.88, 12.96, 12.96, 13.41, 13.86, 13.86, 13.86, 14.3, 14.3, 14.3, 14.75, 14.75, 14.68, 14.68, 14.68, 14.51, 14.51, 14.51, 14.51, 14.31, 14.75, 14.75, 14.81, 14.37, 14.37, 13.94, 13.5, 13.07, 13.07, 13.07, 12.63, 12.2, 12.14, 11.71, 11.71, 11.88, 11.88, 12.31, 12.31, 12.27, 12.31, 11.88, 11.44, 12.31, 12.75, 12.31, 11.57, 10.68, 10.24, 9.8, 9.8, 9.26, 8.36, 7.92, 7.48, 7.04, 7.01, 7.45, 7.56, 6.66, 5.78, 5.32, 4.85, 6.51, 6.58, 7.15, 7.6, 8.49, 8.94, 9.11, 8.91, 9.11, 9.11, 9.83, 10.28, 9.96, 9.3, 9.86, 11.2, 11.58, 12.27, 15.72, 19.46, 20.38, 13.41, 11.28, 10.09, 10.04, 8.22, 7.56, 7.9, 8.73, 9.04, 8.93, 8.93, 8.93, 12.44, 12.44, 12.96, 12.96, 12.96, 13.41, 13.86, 13.86, 13.86, 14.3, 14.3, 14.3, 14.75, 14.68, 14.68, 14.68, 14.47, 14.47, 14.51, 14.51, 14.51, 14.23, 14.75, 14.75, 14.31, 14.1, 14.1, 13.67, 13.5, 13.5, 13.07, 13.01, 12.58, 12.14, 12.14, 11.71, 11.88, 11.88, 11.88, 11.88, 11.84, 11.84, 11.84, 11.84, 11.88, 12.31, 12.75, 12.27, 11.4, 10.52, 10.12, 9.7, 9.7, 8.8, 8.36, 7.92, 7.92, 7.48, 7.01, 7.01, 7.01, 6.14, 5.67, 5.32, 4.85, 5.6, 5.21, 6.51, 7.15, 8.05, 8.49, 8.94, 9.11, 8.8, 9.11, 9.39, 9.83, 9.54, 9.96, 10.0, 10.8, 10.94, 11.38, 13.64, 19.08, 18.76, 14.75, 10.25, 7.51, 8.23, 8.59, 7.36, 6.86, 7.72, 8.73, 8.68, 8.68, 8.68, 12.44, 12.44, 12.52, 12.96, 12.96, 12.96, 13.41, 13.86, 13.86, 14.3, 14.3, 14.75, 14.68, 14.68, 14.68, 14.68, 14.47, 14.47, 14.47, 14.51, 14.23, 14.23, 14.31, 14.31, 13.99, 14.1, 14.1, 13.67, 13.5, 13.44, 13.01, 13.01, 12.58, 12.58, 12.14, 11.88, 11.88, 11.44, 11.44, 11.4, 11.84, 11.84, 11.84, 11.4, 11.84, 12.27, 12.71, 12.27, 11.84, 10.96, 10.12, 9.68, 9.7, 8.8, 8.19, 7.76, 7.76, 7.28, 7.28, 6.85, 6.85, 6.55, 6.11, 5.2, 5.16, 4.8, 5.58, 4.43, 4.74, 5.06, 7.21, 8.49, 9.21, 8.8, 9.33, 8.91, 9.83, 9.83, 9.97, 10.38, 10.68, 10.88, 11.87, 14.18, 21.46, 19.67, 15.65, 11.18, 7.89, 3.8, 6.64, 7.81, 6.98, 6.71, 7.59, 7.68, 7.68, 7.68, 12.52, 12.52, 12.52, 12.96, 12.96, 12.96, 13.41, 13.86, 13.86, 14.3, 14.3, 14.66, 14.68, 14.68, 14.68, 14.47, 14.47, 14.47, 14.47, 14.47, 14.23, 14.23, 14.23, 13.99, 13.99, 13.99, 13.57, 13.88, 13.44, 13.01, 13.01, 12.58, 12.58, 12.75, 12.31, 11.88, 11.88, 11.44, 11.4, 11.4, 11.4, 11.4, 11.4, 11.4, 11.4, 11.4, 11.84, 11.84, 11.84, 10.96, 10.56, 10.12, 9.7, 9.11, 8.63, 8.19, 7.71, 7.71, 7.28, 7.28, 6.85, 6.36, 5.94, 5.44, 5.34, 5.05, 5.36, 4.02, 3.72, 5.06, 5.37, 5.69, 6.79, 7.15, 8.18, 7.81, 8.91, 9.83, 10.28, 10.73, 10.96, 11.18, 11.84, 18.76, 21.41, 20.1, 16.53, 12.96, 10.68, 7.51, 6.79, 7.07, 6.64, 5.86, 6.3, 7.47, 7.47, 7.47, 12.52, 12.52, 12.52, 12.52, 12.96, 12.96, 13.41, 13.41, 13.86, 13.86, 14.3, 14.22, 14.68, 14.68, 14.47, 14.47, 14.47, 14.47, 14.47, 14.56, 14.13, 14.23, 13.86, 13.99, 13.99, 13.57, 13.57, 13.88, 13.44, 13.01, 12.94, 12.75, 12.75, 12.31, 12.31, 11.88, 11.88, 11.44, 11.4, 10.96, 11.4, 11.4, 11.4, 11.4, 10.96, 10.96, 11.4, 11.4, 11.4, 10.96, 10.52, 10.12, 9.54, 9.54, 9.06, 8.63, 8.14, 8.14, 7.71, 7.06, 6.64, 6.64, 6.13, 5.6, 5.6, 5.43, 5.09, 4.75, 5.95, 5.06, 4.22, 4.37, 5.1, 6.7, 5.69, 4.96, 6.64, 9.33, 10.28, 10.73, 10.73, 11.02, 13.83, 17.88, 21.01, 19.67, 16.53, 13.84, 12.41, 10.21, 8.73, 7.64, 6.28, 6.01, 6.32, 7.33, 7.33, 7.33, 12.52, 12.52, 12.52, 12.52, 12.52, 12.96, 13.41, 13.86, 13.86, 13.86, 13.77, 14.22, 14.68, 14.68, 14.47, 14.47, 14.47, 14.47, 14.13, 14.56, 14.56, 14.23, 13.86, 13.99, 13.57, 13.57, 13.88, 13.37, 13.37, 12.94, 13.19, 12.75, 12.75, 12.31, 12.31, 11.88, 11.88, 11.4, 11.4, 10.96, 10.96, 11.4, 11.4, 10.96, 10.96, 10.52, 10.52, 10.52, 10.52, 10.52, 10.52, 9.92, 9.54, 9.54, 9.49, 9.06, 8.56, 8.56, 7.89, 7.06, 7.06, 6.64, 6.13, 6.0, 6.0, 5.69, 5.36, 5.01, 5.72, 5.95, 6.44, 6.01, 7.44, 8.94, 8.94, 7.6, 5.21, 5.46, 8.55, 9.97, 10.28, 10.73, 12.93, 16.02, 19.61, 18.76, 15.65, 12.42, 11.18, 10.0, 8.82, 8.07, 6.32, 5.36, 6.64, 6.63, 6.63, 6.63, 12.52, 12.52, 12.52, 12.52, 12.52, 12.52, 12.96, 13.41, 13.41, 13.33, 13.77, 14.22, 14.23, 14.47, 14.47, 14.47, 14.47, 14.47, 14.13, 14.56, 14.56, 14.66, 14.28, 13.86, 13.44, 13.8, 13.8, 13.37, 13.37, 13.19, 12.75, 12.75, 12.31, 12.31, 12.31, 11.88, 11.88, 11.4, 10.96, 10.96, 10.96, 10.96, 10.91, 10.91, 10.47, 10.47, 10.52, 10.52, 10.08, 10.08, 9.85, 9.92, 9.97, 9.54, 9.49, 9.06, 8.72, 8.3, 7.89, 7.47, 7.2, 6.8, 6.25, 5.86, 5.69, 5.69, 5.36, 5.05, 4.71, 5.93, 6.8, 7.63, 8.06, 8.94, 8.48, 8.94, 8.91, 4.4, 6.17, 7.27, 8.55, 10.58, 12.07, 14.3, 17.81, 18.76, 15.2, 12.05, 9.97, 8.37, 6.44, 6.98, 7.27, 5.63, 6.64, 7.51, 7.51, 7.51, 12.52, 12.52, 12.52, 12.52, 12.96, 12.96, 12.96, 12.96, 13.41, 13.33, 13.77, 14.22, 14.23, 14.47, 14.47, 14.47, 14.47, 14.13, 14.13, 14.13, 14.56, 14.56, 14.28, 13.86, 13.8, 13.8, 13.8, 13.63, 13.19, 13.19, 12.75, 12.31, 12.31, 12.31, 11.88, 11.88, 11.84, 11.4, 11.4, 10.96, 10.96, 10.91, 10.91, 10.91, 10.47, 10.47, 10.47, 10.08, 10.08, 9.85, 9.85, 9.92, 9.92, 9.33, 9.24, 9.24, 8.72, 8.3, 8.3, 7.89, 7.2, 6.8, 6.64, 6.25, 5.72, 5.72, 5.72, 5.65, 4.74, 5.59, 6.32, 6.08, 7.63, 7.2, 8.49, 8.94, 9.11, 6.95, 6.17, 6.17, 7.27, 8.82, 10.46, 12.83, 16.07, 18.33, 16.09, 13.41, 9.36, 7.28, 1.75, 3.25, 4.8, 6.42, 4.83, 6.64, 6.64, 6.64, 12.52, 12.52, 12.52, 12.52, 12.96, 12.96, 12.96, 13.41, 13.33, 13.33, 13.77, 13.77, 14.03, 14.47, 14.47, 14.47, 14.47, 14.13, 14.13, 14.56, 14.56, 14.11, 14.28, 14.23, 13.8, 13.8, 13.59, 13.59, 13.15, 12.71, 12.75, 12.31, 12.31, 11.88, 11.64, 11.64, 11.13, 11.13, 11.13, 10.7, 10.7, 10.6, 10.91, 10.47, 10.47, 10.47, 10.47, 9.85, 9.85, 9.85, 9.85, 9.24, 9.66, 9.24, 9.24, 9.24, 8.72, 8.72, 8.3, 7.6, 7.6, 7.2, 6.7, 6.32, 5.95, 5.72, 5.38, 5.35, 5.35, 5.37, 5.37, 4.56, 5.06, 3.4, 3.6, 6.32, 7.51, 6.64, 5.9, 5.9, 7.27, 8.82, 9.7, 11.87, 14.4, 17.36, 16.52, 14.3, 11.18, 8.38, 0.0, 0.0, 3.25, 5.29, 4.83, 4.83, 4.83, 4.83, 12.52, 12.52, 12.52, 12.52, 12.96, 12.96, 12.96, 13.33, 13.33, 13.33, 13.77, 13.59, 14.03, 14.03, 14.47, 14.03, 13.7, 14.13, 14.13, 14.13, 14.56, 14.56, 14.56, 14.56, 13.7, 13.27, 13.59, 13.59, 13.15, 12.71, 12.71, 12.08, 12.08, 11.64, 11.64, 11.56, 11.56, 11.13, 11.13, 10.7, 10.6, 10.6, 10.18, 10.18, 10.18, 10.18, 9.75, 9.75, 9.85, 9.85, 9.85, 9.24, 9.24, 9.24, 9.24, 8.82, 8.72, 8.72, 8.4, 7.82, 7.6, 7.28, 6.9, 6.0, 6.0, 5.35, 5.35, 5.68, 5.68, 5.35, 4.71, 4.22, 2.26, 2.26, 4.22, 4.71, 7.44, 8.91, 7.81, 6.95, 7.27, 9.2, 10.0, 11.55, 13.29, 16.69, 16.82, 14.74, 13.41, 8.94, 5.21, -2.39, 0.0, 4.4, 4.2, 4.2, 4.2, 4.2, 12.52, 12.52, 12.52, 12.52, 12.52, 12.96, 12.96, 12.88, 13.33, 13.33, 13.53, 13.59, 14.03, 14.03, 14.03, 14.03, 13.7, 13.7, 14.13, 14.13, 14.13, 14.56, 14.56, 14.13, 13.7, 13.59, 13.59, 13.15, 12.85, 12.42, 12.42, 11.99, 11.56, 11.56, 11.56, 11.56, 11.56, 11.13, 11.13, 11.03, 10.6, 10.6, 10.6, 10.18, 10.18, 10.18, 9.75, 9.75, 9.85, 9.55, 9.13, 9.24, 9.24, 9.24, 9.24, 8.82, 8.72, 8.3, 8.21, 8.0, 8.0, 7.28, 6.9, 6.59, 5.93, 5.68, 5.37, 5.37, 6.01, 5.68, 5.06, 4.83, 4.74, 5.37, 6.4, 7.63, 8.06, 9.39, 9.11, 8.18, 8.23, 9.32, 9.77, 10.99, 12.98, 15.61, 16.37, 14.67, 13.39, 12.07, 9.39, 7.81, 0.0, 9.39, 9.39, 8.94, 8.94, 8.94, 12.52, 12.52, 12.96, 12.96, 12.96, 12.96, 12.88, 12.88, 12.88, 13.33, 13.09, 13.53, 14.03, 14.03, 14.03, 13.7, 13.7, 13.7, 13.7, 14.13, 14.13, 14.13, 14.13, 14.13, 13.7, 13.27, 13.27, 12.85, 12.85, 12.42, 12.42, 11.99, 11.56, 11.56, 11.56, 11.13, 11.13, 11.13, 11.13, 10.6, 10.6, 10.6, 10.46, 10.05, 10.05, 10.18, 10.18, 9.75, 9.4, 9.55, 9.13, 9.13, 9.24, 9.24, 8.82, 8.72, 8.72, 8.3, 7.82, 8.0, 8.0, 7.28, 6.96, 6.28, 5.98, 5.65, 5.65, 5.69, 5.69, 5.68, 5.06, 5.09, 4.46, 6.32, 6.71, 7.6, 8.06, 8.4, 8.91, 8.18, 8.82, 8.73, 9.3, 10.6, 12.04, 14.21, 15.47, 14.67, 13.39, 12.52, 10.73, 9.83, 9.39, 6.32, 7.44, 7.44, 7.44, 7.44, 12.52, 12.52, 12.96, 12.96, 12.96, 12.96, 12.88, 12.88, 12.88, 13.33, 13.09, 13.53, 14.03, 14.03, 14.03, 13.7, 13.7, 13.7, 13.7, 14.13, 14.13, 14.13, 14.13, 14.13, 13.7, 13.27, 13.27, 12.85, 12.85, 12.42, 12.42, 11.99, 11.56, 11.56, 11.56, 11.13, 11.13, 11.13, 11.13, 10.6, 10.6, 10.6, 10.46, 10.05, 10.05, 10.18, 10.18, 9.75, 9.4, 9.55, 9.13, 9.13, 9.24, 9.24, 8.82, 8.72, 8.72, 8.3, 7.82, 8.0, 8.0, 7.28, 6.96, 6.28, 5.98, 5.65, 5.65, 5.69, 5.69, 5.68, 5.06, 5.09, 4.46, 6.32, 6.71, 7.6, 8.0, 8.4, 8.91, 8.18, 8.82, 8.73, 9.48, 10.2, 10.96, 12.37, 14.57, 14.67, 13.41, 12.96, 12.07, 9.36, 9.29, 9.11, 9.11, 9.11, 9.11, 9.11]}, {"header": {"dx": 0.06612293990616946, "dy": 0.0552356325346848, "nx": 98, "ny": 59, "la1": 35.046912555036876, "la2": 31.78801023549047, "lo1": -121.43107172385933, "lo2": -114.95102361305473, "refTime": "2026041003", "parameterCategory": 1, "parameterNumber": 3}, "data": [0.0, 0.0, 0.0, 0.0, 0.0, 0.0, 0.0, -2.89, -2.89, -3.58, 0.0, 0.0, 0.0, 0.0, 0.0, 0.0, 0.0, 0.0, 0.0, 0.0, 0.0, 2.97, 2.83, 2.46, 2.17, 2.04, 2.04, 2.97, 2.83, 2.83, 2.44, 2.69, 1.55, 0.83, 0.0, 0.0, 0.0, -0.89, -2.99, -4.14, -5.31, -5.9, -5.2, -6.67, -7.36, -7.0, -7.08, -5.94, 0.0, 3.16, 8.1, 8.53, 9.82, 9.42, 10.23, 9.69, 9.48, 8.91, 8.38, 7.69, 7.69, 6.9, 7.19, 7.19, 7.19, 7.44, 6.64, 5.33, 4.97, 4.81, 3.56, 3.44, 3.32, 2.71, 3.68, 3.44, 3.23, 2.72, 1.61, 0.89, 2.02, 2.39, 1.16, 1.11, 0.0, 0.0, 0.0, 0.0, -0.85, -0.89, -2.23, -1.84, 0.0, 0.0, 3.04, 5.6, 6.44, 8.23, 0.0, 0.0, 0.0, 0.0, 0.0, 0.0, 0.0, -2.98, -2.89, -3.58, 0.0, 0.0, 0.0, 0.0, 0.0, 0.0, 0.0, 0.0, 0.0, 0.0, 0.0, 0.0, 2.28, 3.32, 2.21, 1.2, 1.11, 2.17, 2.17, 2.17, 2.54, 2.54, 2.2, 1.98, 1.98, 1.01, 0.0, -1.0, -3.8, -5.36, -5.9, -6.97, -6.67, -8.31, -8.77, -8.0, -5.4, 0.0, 6.31, 9.48, 9.46, 8.82, 8.75, 8.22, 8.85, 9.17, 9.48, 8.23, 7.69, 7.69, 6.9, 6.67, 7.19, 7.19, 7.19, 5.8, 5.55, 4.58, 5.16, 4.99, 5.43, 4.21, 4.36, 3.56, 3.81, 3.56, 3.23, 2.72, 1.61, 0.89, 2.02, 2.39, 1.16, 1.11, 0.0, 0.0, 0.0, 0.0, -0.85, -0.89, -2.23, -1.84, 0.0, 0.0, 3.04, 5.6, 6.44, 8.23, 0.0, 0.0, 0.0, 0.0, 0.0, 0.0, 0.0, 0.0, -2.98, -3.47, -3.04, -3.25, 0.0, 0.0, 0.0, 0.0, 0.0, -2.71, -2.71, -3.53, -3.11, 0.0, 0.0, 3.25, 3.32, 3.35, 3.52, 2.46, 1.47, 0.0, 1.14, 1.96, 2.26, 3.4, 2.49, 2.06, 0.0, -1.47, -6.64, -7.27, -9.08, -9.8, -10.47, -10.39, -9.76, -3.31, 4.88, 12.96, 10.3, 8.15, 7.9, 7.65, 7.95, 8.85, 8.85, 9.48, 8.83, 8.23, 7.69, 7.2, 6.9, 7.19, 7.19, 7.19, 6.3, 5.8, 4.81, 5.8, 6.67, 6.96, 6.65, 5.55, 4.0, 3.46, 1.97, 1.77, 1.65, 2.41, 0.73, 1.03, 1.28, 2.58, 1.11, 0.0, 0.0, -0.81, -0.67, -0.77, -1.75, -1.93, -1.55, 0.0, 0.0, 0.0, 2.93, 7.59, 8.72, 8.72, 0.0, 0.0, 0.0, 0.0, 0.0, 0.0, 0.0, 0.0, -2.89, -3.36, -2.93, -3.39, 0.0, 0.0, 0.0, 0.0, 0.0, -2.93, -5.4, -5.0, -3.53, -3.25, 0.0, 0.0, 2.1, 5.06, 4.94, 4.0, 1.75, 0.0, 0.0, 0.0, 2.17, 2.17, 2.17, 0.0, 0.0, -5.0, -9.08, -11.5, -12.57, -13.28, -9.89, -3.59, 0.0, 9.92, 11.68, 8.49, 7.27, 7.36, 7.14, 7.51, 8.15, 8.85, 8.85, 9.17, 8.54, 8.23, 7.69, 6.42, 6.67, 7.19, 7.51, 6.63, 6.08, 6.08, 7.78, 8.32, 8.85, 8.66, 7.93, 6.28, 4.91, 3.14, 0.86, 0.0, 0.0, 0.0, 0.92, 0.0, 1.39, 1.62, 0.0, 0.0, -1.0, -1.11, -0.99, -1.67, -2.83, -3.04, -2.35, 0.0, 0.0, 2.71, 8.91, 9.83, 9.26, 8.48, 0.0, 0.0, 0.0, 0.0, 0.0, 0.0, 0.0, 0.0, -2.89, -3.36, -2.93, -3.39, -3.68, -3.53, -3.39, -2.82, -2.82, -2.93, -5.4, -8.53, -6.94, -5.95, -3.39, 0.0, 0.0, 3.53, 5.9, 6.64, 5.21, 2.69, 0.0, 0.0, 0.0, 0.0, 0.0, -3.53, -6.2, -9.17, -12.22, -14.66, -10.66, 0.0, 8.43, 9.48, 10.79, 10.24, 9.3, 8.41, 8.22, 7.95, 8.15, 8.15, 8.85, 9.5, 9.5, 9.17, 8.54, 8.23, 7.2, 6.42, 5.8, 6.87, 6.63, 7.02, 8.15, 8.85, 9.42, 9.77, 10.38, 9.67, 8.72, 7.6, 7.2, 5.79, 2.45, 0.0, -1.91, -0.89, 0.0, 1.15, 0.0, 0.0, -0.94, -0.94, -2.09, -2.33, -2.83, -3.63, -4.58, -5.31, 0.0, 0.0, 3.39, 8.94, 9.21, 9.39, 8.82, 8.48, 0.0, 0.0, 0.0, 0.0, 0.0, 0.0, 0.0, 0.0, -2.89, -3.36, -2.93, -3.25, -3.53, -3.39, -3.53, -5.0, -6.45, -5.4, -7.24, -10.01, -11.62, -10.8, -12.72, -5.8, 0.0, 0.0, 3.68, 5.0, 4.8, 5.95, 5.21, 4.2, 4.4, 0.0, -3.25, -8.05, -10.79, -11.09, -14.51, 0.0, 14.39, 14.3, 12.35, 11.72, 10.94, 10.73, 9.89, 9.42, 9.02, 8.53, 7.56, 9.16, 8.53, 8.85, 9.17, 8.54, 7.78, 6.3, 6.0, 5.55, 6.3, 6.21, 6.7, 8.53, 10.61, 10.73, 10.25, 10.12, 9.97, 8.87, 7.74, 6.9, 7.0, 7.08, 5.67, 3.36, 0.0, -1.18, 0.0, 1.33, 0.0, -3.32, -2.83, -2.67, -3.17, -4.94, -5.21, -7.51, -7.36, -4.38, 0.0, 11.2, 9.39, 8.06, 9.03, 9.39, 8.82, 9.55, 0.0, 0.0, 0.0, 0.0, 0.0, 0.0, 0.0, -2.43, -2.81, -2.72, -5.4, -5.46, -3.39, -3.39, -3.82, -7.9, -8.53, -7.51, -7.82, -8.85, -10.79, -13.57, -14.75, -15.65, -14.42, -10.43, -8.43, -3.47, 0.0, 6.44, 7.59, 7.51, 5.46, 0.0, -2.82, -4.38, -10.12, -9.8, -9.8, 11.16, 10.12, 7.19, 12.72, 13.41, 12.65, 11.6, 10.81, 10.41, 9.76, 9.5, 9.16, 8.75, 8.85, 8.85, 7.51, 7.54, 6.43, 4.55, 4.1, 5.27, 6.21, 6.7, 9.08, 10.8, 10.8, 10.25, 10.47, 9.17, 7.96, 7.2, 5.46, 5.15, 4.38, 4.07, 4.21, 3.98, 3.36, 1.02, 0.0, 0.0, -2.46, -4.94, -5.63, -4.78, -5.95, -7.26, -8.32, -9.8, -10.12, 0.0, 12.52, 11.71, 7.89, 7.6, 8.48, 8.94, 9.83, 10.52, 0.0, 0.0, 0.0, 0.0, 0.0, 0.0, 0.0, -2.43, -2.35, -2.63, -5.0, -6.95, -4.6, -3.53, -3.96, -6.71, -8.53, -6.67, -6.67, -6.9, -6.9, -9.48, -10.73, -14.53, -14.11, -12.16, -12.52, -11.38, 0.0, 9.48, 3.82, 2.93, 0.0, 0.0, 0.0, 0.0, -3.14, -6.2, -5.2, -0.0, 4.1, 4.38, 11.38, 16.99, 15.27, 13.28, 10.4, 10.18, 9.66, 10.23, 8.69, 9.02, 8.85, 8.32, 7.51, 6.63, 4.75, 3.82, 2.93, 3.32, 5.98, 8.94, 10.6, 10.62, 10.8, 11.35, 9.8, 7.96, 5.86, 3.29, 2.92, 1.77, 0.86, 0.84, 0.89, 2.37, 3.07, 3.32, 2.06, 0.0, -2.07, -5.78, -6.53, -7.13, -7.54, -8.67, -8.37, -10.09, -7.78, 8.53, 10.84, 5.72, 5.37, 6.63, 7.89, 8.49, 9.83, 9.54, 0.0, 0.0, 0.0, 0.0, 0.0, 0.0, 0.0, -2.43, -2.35, -4.81, -6.97, -9.3, -9.17, -9.17, -6.94, -8.85, -9.17, -9.48, -8.05, -6.0, -4.24, -3.25, -6.2, -7.36, -9.17, -7.9, -6.95, -11.53, -11.06, 0.0, -2.72, -5.64, -6.8, -7.69, 0.0, 2.82, 0.0, -2.71, -5.7, -10.28, -0.0, 8.18, 10.43, 12.52, 11.03, 10.0, 11.2, 10.12, 9.36, 8.85, 9.48, 8.53, 8.53, 8.02, 7.24, 5.77, 4.58, 3.68, 1.91, 4.32, 8.94, 10.18, 9.97, 10.62, 12.39, 11.29, 9.27, 7.43, 4.48, 1.2, 1.04, 0.0, 0.0, 0.0, 0.0, 0.0, 0.89, 1.64, 0.92, 0.89, 0.0, -5.5, -6.04, -6.68, -6.88, -7.26, -7.54, -7.72, -4.36, 5.9, 7.15, 5.01, 4.19, 4.83, 6.79, 8.24, 9.83, 9.39, 0.0, 0.0, 0.0, 0.0, 0.0, 0.0, 0.0, -2.09, -2.35, -4.1, -6.44, -8.1, -9.27, -10.91, -11.09, -10.73, -12.27, -13.19, -11.8, -10.73, -10.37, -10.12, -8.66, -8.94, -11.17, -8.22, -6.64, -8.93, -13.99, -10.12, -7.59, -11.7, -13.02, -13.86, 0.0, 0.0, 0.0, -1.33, -2.82, 0.0, 9.17, 10.79, 11.03, 10.28, 8.55, 10.0, 9.3, 8.53, 9.17, 9.17, 9.36, 8.97, 8.64, 8.22, 7.65, 7.56, 5.77, 4.32, 3.68, 9.67, 10.84, 9.92, 11.03, 13.02, 13.02, 11.35, 10.3, 8.72, 6.21, 3.68, 1.25, 1.9, 1.89, 0.98, 1.02, 0.0, -0.97, -0.97, -0.86, 0.0, 0.0, 0.0, -6.51, -5.69, -6.73, -6.18, -6.83, -6.05, -4.25, 2.83, 6.23, 6.0, 2.49, 2.82, 3.8, 6.64, 10.28, 8.94, 0.0, 0.0, 0.0, 0.0, 0.0, 0.0, 0.0, -2.09, -2.02, -3.68, -5.8, -7.69, -8.05, -9.02, -10.12, -10.12, -12.22, -13.02, -13.42, -14.91, -14.78, -15.59, -14.4, -12.0, -11.33, -9.17, -7.27, -8.23, -11.6, -10.82, -8.1, -9.17, -12.07, -0.0, -10.0, -5.4, -1.64, 0.0, 5.4, 6.2, 10.12, 13.41, 11.62, 10.6, 8.93, 9.2, 9.2, 8.73, 8.73, 9.09, 9.67, 10.18, 10.04, 9.4, 8.79, 8.82, 8.75, 6.7, 5.4, 11.62, 11.14, 10.49, 13.25, 14.1, 13.89, 13.56, 12.18, 11.09, 9.36, 7.24, 5.6, 5.43, 4.81, 3.0, 0.99, 0.0, -3.14, -3.47, -4.65, -3.25, -1.01, 0.0, 0.0, -6.43, -6.87, -5.06, -5.59, -5.52, -4.07, 1.05, 4.43, 7.15, 1.63, -0.0, -0.0, -0.0, -0.0, 0.0, 0.0, 0.0, 0.0, 0.0, 0.0, 0.0, 0.0, -2.09, -2.02, -3.68, -5.28, -6.88, -7.82, -8.58, -7.44, -5.99, -4.28, -5.48, -7.2, -7.6, -6.84, -6.66, -7.0, -6.34, -4.24, -4.1, -5.6, -3.6, -5.75, -4.6, -1.76, 0.0, 3.68, 0.0, -7.59, -5.29, 0.0, 6.21, 10.01, 9.48, 9.8, 12.72, 12.07, 11.18, 9.75, 8.4, 9.6, 9.96, 9.2, 9.2, 9.8, 10.4, 10.58, 10.58, 10.17, 10.2, 10.12, 8.02, 6.94, 10.18, 10.28, 12.71, 14.18, 14.37, 14.62, 14.79, 14.75, 13.41, 11.8, 10.38, 9.17, 7.63, 6.43, 3.81, 0.0, -1.33, -4.55, -5.6, -5.6, -4.24, -1.72, 0.0, 2.72, 0.0, -4.8, -5.86, -5.82, -5.76, -4.34, 0.0, 2.82, 6.8, -0.0, -0.0, -2.06, -5.7, -4.4, -0.0, 0.0, 0.0, 0.0, 0.0, 0.0, 0.0, 0.0, -1.77, -1.77, -3.36, -4.87, -5.02, -6.6, -7.38, -8.05, -5.85, -4.21, -2.63, -1.71, -0.84, -0.84, -0.79, 0.0, 0.0, 0.0, 0.0, 0.0, 0.0, 0.0, 0.0, 0.0, 0.0, 1.91, 0.0, -2.02, 0.0, 5.29, 8.59, 9.08, 8.53, 8.01, 7.51, 11.45, 10.28, 9.83, 8.48, 8.18, 8.55, 6.95, 7.87, 8.0, 8.48, 8.72, 9.64, 11.28, 11.71, 11.2, 8.05, 4.58, 7.94, 11.76, 13.25, 13.5, 13.38, 13.86, 14.28, 14.55, 14.51, 12.42, 12.41, 11.95, 10.12, 7.12, 4.62, 1.5, 0.0, -5.8, -5.4, -3.96, 0.0, 0.0, 2.28, 2.72, 3.25, 2.45, 0.0, -4.8, -5.21, -3.45, 0.0, 1.4, 1.73, 0.0, -1.73, -3.8, -4.4, -0.0, 3.97, 0.0, 0.0, 0.0, 0.0, 0.0, 0.0, 0.0, -1.77, -1.77, -3.47, -3.47, -5.02, -5.99, -7.38, -7.2, -7.71, -5.78, -3.92, -2.56, -1.67, -0.79, -0.79, 0.0, 0.0, 0.0, 0.0, 0.68, 0.68, 1.25, 0.62, 0.0, 0.0, 0.0, 0.0, 0.0, 4.4, 4.83, 6.42, 6.42, 6.7, 5.2, 4.15, 3.53, 5.0, 6.95, 6.95, 5.69, 5.46, 5.95, 7.59, 8.18, 4.8, 0.0, 0.0, 0.0, -0.0, 10.28, 4.75, 2.91, 9.83, 11.21, 13.41, 13.33, 12.96, 12.07, 12.07, 12.07, 11.91, 11.6, 10.12, 10.92, 10.12, 6.45, 4.4, 2.39, 7.9, 9.6, 8.23, 5.06, 3.65, 3.65, 2.82, 2.45, 2.56, 4.39, 2.91, 0.0, 0.0, 0.0, 0.0, 1.04, 0.0, 0.0, -3.97, -1.75, -0.0, 4.83, 7.06, 0.0, 0.0, 0.0, 0.0, 0.0, 0.0, 0.0, -1.77, -1.77, -3.1, -3.1, -4.66, -5.99, -5.64, -7.2, -6.84, -5.94, -5.56, -3.9, -2.72, -1.68, -0.8, 0.0, 0.0, 0.0, 0.0, 0.7, 0.68, 1.26, 1.23, 0.58, 0.0, -1.2, -1.52, 0.0, 2.39, 5.29, 5.86, 5.75, 3.25, 2.95, 0.0, 0.0, 0.0, 4.2, 2.83, 2.83, 4.71, 4.96, 6.95, 4.6, 0.0, 0.0, 0.0, 0.0, 0.0, -8.49, -3.45, 0.89, 10.73, 10.84, 11.62, 11.18, 11.18, 11.18, 10.73, 11.18, 10.84, 9.6, 9.08, 8.75, 6.72, 4.47, 2.33, 0.0, 8.8, 9.2, 7.68, 6.42, 6.41, 5.0, 3.82, 2.6, 1.76, 0.0, 0.0, 0.0, 0.93, 0.72, 1.54, 1.76, 0.0, -1.73, -7.6, 3.6, 8.38, 8.05, 8.05, 0.0, 0.0, 0.0, 0.0, 0.0, 0.0, 0.0, -1.58, -1.58, -1.58, -3.2, -4.66, -4.24, -5.64, -5.35, -6.66, -6.36, -5.71, -4.38, -2.87, -1.78, -1.68, -0.8, 0.0, 0.0, 0.75, 1.43, 0.7, 0.65, 0.63, 0.63, 0.0, -0.69, -1.28, 0.0, 2.83, 6.95, 6.95, 5.0, 1.52, 0.0, 0.0, 0.0, 0.0, 0.0, 0.0, 2.69, 4.46, 7.63, 7.6, 6.01, 0.0, 3.8, 3.8, 3.6, 0.0, -3.8, -4.4, 0.0, 9.97, 10.18, 10.52, 9.2, 8.18, 6.64, 8.4, 6.01, 6.95, 8.55, 8.58, 4.88, 0.93, 0.0, -2.52, 0.0, 10.27, 10.8, 11.34, 10.12, 8.95, 7.9, 7.12, 5.72, 4.47, 2.1, -1.33, -2.23, 0.0, 0.0, 0.74, 0.78, -0.79, 0.0, 3.17, 6.79, 8.37, 8.44, 8.44, 0.0, 0.0, 0.0, 0.0, 0.0, 0.0, 0.0, -1.63, -1.58, -1.58, -3.2, -2.89, -4.37, -4.37, -5.35, -5.35, -4.95, -4.86, -4.67, -3.33, -2.87, -1.78, -0.85, 0.0, 1.53, 1.46, 0.7, 0.67, 0.0, 0.0, 0.0, 0.0, -0.73, -1.42, -1.75, 0.0, 5.21, 3.98, 1.45, 0.0, -1.33, 0.0, 0.0, 0.0, 0.0, 0.0, 4.96, 7.07, 8.06, 8.0, 6.32, 6.64, 6.64, 5.21, 5.21, 2.28, 0.0, 2.02, 5.75, 9.08, 9.58, 8.23, 6.95, 4.2, 4.2, 2.54, 0.0, 0.0, 9.39, 4.6, 0.0, -3.53, -5.36, -4.08, 6.45, 12.42, 13.19, 11.82, 10.54, 9.49, 8.72, 7.69, 6.65, 5.29, 4.47, 2.39, -3.15, -1.4, 0.0, 0.0, 0.0, 0.0, 0.76, 2.9, 5.7, 7.51, 8.79, 8.79, 1.72, 0.0, 0.0, 0.0, 0.0, 0.0, 0.0, 0.0, -1.63, -1.63, -2.89, -2.98, -4.37, -4.37, -4.0, -4.0, -4.95, -4.73, -3.47, -3.24, -2.0, -2.8, -0.92, 0.0, 2.32, 1.46, 0.0, 0.0, -0.72, -0.73, -1.45, -0.74, -0.78, -1.6, -2.62, -1.4, -2.17, -2.02, -2.95, -1.28, -1.93, 0.0, 0.0, 0.0, 0.0, 5.21, 6.32, 6.32, 6.64, 6.64, 6.64, 6.95, 6.95, 6.95, 5.9, 4.4, 3.65, 5.29, 6.7, 6.98, 7.9, 6.17, 5.9, 3.49, 1.84, 2.06, 0.0, -6.01, -9.33, -5.75, -2.72, -2.93, -2.32, 0.0, 11.38, 14.39, 12.11, 9.94, 8.74, 7.32, 6.6, 5.31, 4.38, 3.23, 2.0, 0.0, -2.17, -3.8, -3.15, 0.0, 1.09, 2.69, 2.18, 2.83, 5.98, 7.56, 7.96, 7.96, 1.72, 0.0, 0.0, 0.0, 0.0, 0.0, 0.0, 0.0, -1.63, -1.63, -2.89, -2.98, -3.07, -4.5, -4.37, -5.96, -3.88, -3.79, -2.57, -1.08, -1.94, -3.69, -4.03, -1.5, 0.0, 0.0, -1.53, -2.4, -2.47, -2.39, -2.59, -1.7, -0.85, -0.87, -1.83, -3.04, -4.4, -5.04, -4.4, -3.07, -1.45, 0.0, 0.0, 2.39, 5.46, 5.9, 5.9, 5.63, 5.63, 5.63, 6.95, 6.95, 6.95, 5.9, 5.9, 5.29, 5.06, 5.52, 6.98, 6.98, 5.52, 3.82, 3.65, 3.15, 1.75, 0.0, 0.0, -3.32, -6.95, -6.7, -1.53, 0.98, 3.09, 5.14, 6.81, 6.84, 4.5, 2.15, 2.57, 2.44, 0.84, 0.0, 0.0, 0.0, 0.0, 0.0, 0.0, 0.0, -2.6, 0.0, 3.65, 3.81, 2.57, 2.57, 3.87, 6.95, 8.03, 8.03, 1.72, 0.0, 0.0, 0.0, 0.0, 0.0, 0.0, 0.0, -1.63, -1.47, -1.47, -2.98, -3.07, -4.12, -4.12, -4.0, -3.88, -4.24, -3.79, -1.68, -3.04, -5.09, -6.74, -8.47, -7.4, -6.36, -3.72, -3.69, -3.69, -2.79, -0.97, -0.92, 0.0, 0.0, 0.0, -2.15, -4.1, -4.47, -3.69, -1.78, -0.59, 0.0, 1.68, 2.7, 4.0, 5.52, 5.06, 5.06, 4.83, 5.63, 5.63, 5.63, 5.63, 5.63, 5.36, 5.86, 5.95, 6.3, 5.7, 3.98, 3.82, 2.39, 2.39, 1.84, 1.67, 0.0, 0.0, 0.0, -2.49, -1.05, 0.96, 3.49, 4.74, 4.1, 1.7, -1.0, -5.41, -6.16, -3.39, -2.37, -1.68, -1.68, -1.72, -1.77, -0.93, 0.0, 0.93, 3.25, 2.71, 4.8, 3.98, 2.52, 0.97, 0.98, 2.28, 4.6, 7.27, 7.27, 1.72, 0.0, 0.0, 0.0, 0.0, 0.0, 0.0, 0.0, -1.63, -1.51, -1.47, -2.98, -3.07, -2.8, -4.12, -4.12, -5.04, -5.04, -5.8, -5.64, -5.81, -5.56, -6.36, -7.2, -7.6, -5.65, -3.49, -2.79, -1.83, -0.94, 0.0, 0.0, 0.0, 0.92, 0.0, 0.0, -1.05, -1.83, -1.64, -0.68, 0.0, 0.7, 1.39, 2.21, 2.97, 3.39, 3.65, 3.65, 3.49, 3.49, 3.32, 4.0, 5.36, 5.63, 6.95, 6.32, 7.27, 7.74, 6.7, 3.65, 2.39, 2.39, 0.0, 0.0, 0.0, 1.75, 2.28, 0.0, 1.33, 3.34, 4.65, 5.79, 6.26, 4.1, 0.0, -6.16, -11.01, -11.29, -9.66, -7.32, -4.19, -2.44, -0.84, 0.0, 0.0, 0.0, 1.07, 2.83, 3.02, 2.95, 0.0, 0.0, 0.0, 0.0, 1.16, 4.2, 6.01, 6.01, 1.72, 0.0, 0.0, 0.0, 0.0, 0.0, 0.0, 0.0, -1.47, -1.51, -1.51, -2.98, -2.72, -2.8, -4.12, -4.12, -5.19, -4.66, -5.67, -6.52, -5.37, -3.24, -3.62, -4.73, -4.67, -4.34, -2.87, -0.87, 0.0, 0.0, 0.0, 0.0, 0.87, 0.87, 0.89, 0.89, 0.0, 0.0, 0.0, 0.0, 0.0, 0.61, 0.62, 1.33, 2.01, 1.95, 3.25, 1.62, 1.84, 1.75, 3.15, 3.8, 5.1, 7.15, 7.15, 8.43, 8.8, 9.6, 7.59, 5.06, 2.83, 2.97, 0.0, 0.0, 2.28, 2.28, 1.84, 1.93, 5.29, 7.9, 10.04, 10.43, 9.67, 6.97, -7.24, -11.66, -13.76, -13.32, -12.71, -11.41, -8.61, -5.35, -2.5, 0.0, 0.0, 0.83, 0.93, 0.93, 0.0, 1.39, -0.7, -2.44, -2.61, -0.81, 1.2, 3.8, 5.59, 5.59, 1.72, 1.72, 0.0, 0.0, 0.0, 0.0, 0.0, 0.0, -1.47, -1.51, -1.51, -1.51, -2.8, -2.8, -2.8, -4.12, -3.69, -4.66, -5.46, -5.56, -5.37, -2.97, -2.98, -2.98, -3.05, -2.04, -1.97, -0.92, 0.0, 0.0, 0.0, 0.0, 0.0, 0.0, 0.83, 0.87, 0.85, 0.82, 0.0, 0.0, 0.0, 0.64, 0.65, 0.64, 1.22, 1.84, 1.39, 0.0, 0.0, 2.06, 1.95, 3.8, 6.01, 6.79, 8.0, 8.3, 9.29, 9.75, 8.24, 5.2, 2.17, 0.0, 0.0, 0.0, 4.0, 5.21, 4.2, 4.2, 8.18, 9.21, 11.18, 10.41, 3.87, 3.33, -5.0, -9.83, -13.88, -14.2, -13.14, -12.68, -11.44, -8.46, -5.86, -3.36, -1.72, -0.8, -0.79, -1.68, -2.49, -2.44, -2.18, -3.29, -2.23, 0.0, 1.67, 2.69, 4.71, 4.71, 1.72, 1.72, 0.0, 0.0, 0.0, 0.0, 0.0, 0.0, 0.0, -1.51, -1.51, -1.56, -2.8, -2.8, -2.8, -4.12, -3.79, -3.58, -4.6, -4.42, -4.26, -4.12, -3.9, -3.58, -2.64, -1.83, -1.83, -0.92, -0.92, 0.0, 0.0, 0.0, 0.0, 0.0, 0.85, 0.85, 0.85, 0.84, 0.74, 0.64, 0.6, 0.61, 0.64, 0.68, 0.64, 0.63, 0.0, 0.0, 0.0, 2.17, 4.0, 3.8, 6.01, 6.01, 7.6, 8.24, 8.05, 8.77, 8.23, 5.1, 3.35, 0.0, 0.0, 6.01, 8.0, 6.64, 8.05, 8.43, 8.48, 9.83, 10.28, -4.66, -0.89, 1.87, 4.59, 2.81, -6.94, -10.73, -11.64, -12.03, -11.42, -10.81, -9.08, -7.6, -6.1, -4.58, -3.85, -3.11, -3.21, -0.93, -1.54, 0.0, 0.0, 0.0, 0.0, 2.69, 4.6, 4.6, 1.72, 1.72, 0.0, 0.0, 0.0, 0.0, 0.0, 0.0, 0.0, -1.51, -1.51, -1.51, -1.42, -2.8, -2.8, -2.8, -3.79, -3.69, -3.42, -4.42, -4.15, -4.38, -4.12, -4.01, -3.58, -2.57, -1.78, -1.83, -0.87, -0.85, 0.0, 0.0, 0.0, 0.0, 0.85, 0.85, 0.89, 1.73, 1.58, 1.33, 1.14, 1.15, 0.61, 0.68, 0.7, 0.0, 0.0, 0.0, 0.0, 0.85, 1.75, 2.02, 3.8, 4.46, 7.07, 7.07, 8.06, 7.6, 8.0, 4.2, 3.45, 1.67, 0.0, 9.39, 9.11, 8.72, 9.03, 9.11, 9.89, 7.27, -7.9, -5.8, -1.27, 2.53, 5.06, 5.83, 5.8, 2.4, -4.05, -9.66, -11.03, -10.47, -11.44, -10.37, -8.29, -6.2, -4.92, -3.32, -2.46, 1.47, 4.88, 3.45, 2.7, 0.0, 0.0, 1.75, 5.59, 5.59, 1.72, 1.72, 1.72, 0.0, 0.0, 0.0, 0.0, 0.0, 0.0, -1.47, -1.51, -1.51, -1.42, -1.42, -2.8, -2.8, -2.57, -3.52, -3.52, -3.28, -3.07, -4.15, -4.12, -4.12, -4.01, -3.69, -2.65, -2.65, -1.83, -0.87, -0.85, 0.0, 0.0, 0.0, 0.0, 0.89, 0.89, 1.78, 1.73, 1.48, 1.23, 1.2, 1.22, 1.3, 0.68, 0.68, 0.0, 0.0, 0.0, 0.0, 0.78, 0.77, 1.62, 2.06, 4.71, 4.71, 5.69, 3.6, 0.0, 0.0, 1.62, 2.82, 2.83, 9.39, 9.39, 8.82, 10.18, 10.62, 9.55, 5.7, -2.1, -4.1, 0.0, 1.65, 4.7, 7.11, 7.22, 5.06, 0.0, -6.63, -10.94, -11.9, -11.45, -10.46, -7.8, -5.76, -3.88, -2.69, 0.0, 3.15, 4.2, 3.95, 2.41, 0.0, 0.0, 3.49, 5.21, 5.21, 1.72, 1.72, 1.72, 0.0, 0.0, 0.0, 0.0, 0.0, 0.0, -1.47, -1.51, -1.51, -1.56, -1.38, -2.8, -2.8, -2.57, -2.57, -3.52, -3.28, -3.28, -3.07, -3.16, -4.01, -4.01, -3.79, -3.69, -2.72, -1.78, -1.78, -0.89, -0.94, 0.0, 0.0, 0.0, 0.0, 0.0, 0.0, 0.97, 0.92, 1.62, 2.1, 1.98, 1.81, 1.89, 1.28, 0.68, 0.0, 0.0, 0.0, 0.0, 0.0, 0.0, 0.0, 1.58, 2.4, 2.54, 0.0, 2.26, 2.4, 0.0, 0.93, 1.76, 6.32, 9.83, 9.26, 10.58, 9.2, 6.95, 2.49, 0.0, -2.82, -2.24, 0.0, 3.58, 5.41, 4.7, 2.13, 0.0, -2.82, -8.58, -12.99, -11.9, -9.2, -8.22, -7.15, -5.28, -2.69, 0.0, 2.17, 1.47, 1.02, 2.44, 2.08, 2.71, 5.32, 5.69, 5.69, 1.72, 1.72, 1.72, 0.0, 0.0, 0.0, 0.0, 0.0, 0.0, 0.0, -1.47, -1.51, -1.51, -1.38, -1.38, -2.72, -2.57, -2.57, -3.52, -3.28, -3.28, -3.07, -3.07, -2.88, -3.9, -3.9, -3.69, -2.8, -2.72, -1.83, -0.92, -0.92, 0.0, 0.0, 0.0, 0.0, 0.0, 0.0, 0.0, 1.0, 0.92, 1.61, 2.19, 2.53, 2.49, 2.25, 1.79, 0.0, 0.0, -0.64, -0.69, -0.65, 0.0, 0.0, 0.0, 0.0, 0.0, 0.0, 2.26, 2.4, 0.0, 0.0, 0.0, 5.21, 9.39, 11.02, 9.6, 7.27, 0.0, 0.0, 0.0, -1.33, -3.6, -3.6, -2.13, -1.67, -1.57, -1.53, -0.81, -0.86, -3.8, -11.81, -13.43, -9.56, -8.57, -7.85, -6.17, -3.8, -1.33, 0.0, 0.0, 0.0, 1.98, 4.49, 6.31, 6.48, 6.24, 6.24, 1.72, 1.72, 1.53, 0.0, 0.0, 0.0, 0.0, 0.0, 0.0, 0.0, 0.0, -1.51, -1.56, -1.42, -1.42, -2.72, -2.5, -2.5, -2.31, -3.18, -3.28, -3.07, -3.07, -2.88, -2.88, -2.88, -2.88, -2.8, -2.87, -1.83, -1.83, -0.92, -0.92, -0.97, 0.0, 0.0, 0.0, 0.0, 0.0, 0.0, 1.04, 1.77, 1.64, 1.93, 1.84, 2.93, 1.67, 0.0, -1.44, -0.62, -1.26, -0.69, -0.71, -0.8, -0.74, -0.83, -1.84, 0.0, 0.0, 0.0, 0.0, -2.17, -1.33, 7.81, 10.28, 10.18, 10.05, 8.03, 2.39, 0.0, 0.0, -1.13, -1.9, -4.65, -8.14, -9.28, -8.51, -5.51, -2.55, -0.93, -1.04, -5.78, -11.8, -12.03, -7.92, -6.98, -6.95, -5.98, -4.23, -3.07, -2.19, 2.82, 6.4, 6.96, 7.63, 7.38, 6.87, 6.87, 1.72, 1.72, 1.53, 0.0, 0.0, 0.0, 0.0, 0.0, 0.0, 0.0, 0.0, -1.51, -1.51, -1.42, -1.46, -2.8, -2.5, -2.5, -2.31, -3.42, -3.28, -3.28, -3.07, -3.07, -2.88, -2.88, -2.8, -2.88, -2.8, -1.88, -1.78, -1.78, -0.89, -0.95, -0.97, 0.0, 0.0, 0.0, 0.0, 0.0, 0.0, 1.02, 0.89, 0.75, 0.67, 0.89, 0.86, -0.74, -1.77, -2.24, -2.19, -0.89, -1.52, -1.49, -1.45, -1.63, -1.96, -1.96, 0.0, 0.0, -1.73, -3.14, 0.0, 9.11, 9.21, 9.39, 9.7, 8.58, 4.2, 0.0, -3.92, -2.16, -0.92, -2.41, -6.47, -9.17, -9.54, -8.22, -3.93, -0.92, 0.0, -0.68, -2.97, -7.5, -9.59, -10.18, -10.3, -7.54, -5.6, -3.04, 0.0, 6.94, 7.68, 7.43, 7.38, 7.01, 6.77, 6.77, 1.66, 1.66, 1.53, 0.0, 0.0, 0.0, 0.0, 0.0, 0.0, 0.0, 0.0, 0.0, -1.51, -1.38, -1.42, -1.42, -2.57, -2.57, -2.38, -2.38, -3.28, -3.28, -3.07, -3.07, -3.07, -3.07, -2.8, -2.72, -1.89, -1.83, -1.88, -1.73, -1.83, -0.92, -0.95, -1.0, 0.0, 0.0, 0.0, 0.0, 0.0, 0.0, 0.0, 0.0, 0.0, -1.02, -1.83, -1.5, -0.95, 0.0, 0.0, 0.0, -0.74, -1.63, -1.41, -1.47, -2.82, -2.99, -2.99, -2.66, -2.26, -1.4, 2.69, 8.48, 8.48, 7.6, 8.49, 4.4, 2.02, 0.0, -3.87, -2.95, 0.0, 0.87, -1.57, -6.14, -7.93, -7.5, -5.92, -3.07, -1.57, -0.79, -0.61, -1.32, -3.07, -4.8, -6.16, -4.37, -2.72, 0.0, 4.1, 7.78, 7.19, 6.72, 6.79, 6.43, 6.21, 6.21, 1.48, 1.48, 1.48, 0.0, 0.0, 0.0, 0.0, 0.0, 0.0, 0.0, 0.0, 0.0, -1.47, -1.42, -1.42, -1.42, -2.57, -2.65, -2.45, -2.45, -2.28, -3.37, -3.28, -3.07, -3.07, -3.07, -2.98, -2.81, -1.34, -1.83, -1.94, -2.0, -2.0, -0.98, -0.98, -1.07, 0.0, 0.0, 0.0, 0.0, 0.0, 0.0, 0.0, 0.0, -0.73, -2.06, -2.67, -0.78, 0.0, 0.0, 0.0, 0.0, 0.0, -0.67, -0.64, -1.41, -1.7, -2.26, -2.99, -2.51, -1.1, 0.0, 4.71, 4.71, 4.96, 3.8, 0.0, -6.64, -3.25, -1.52, 0.0, 0.0, 5.6, 1.51, 0.0, -3.11, -6.4, -8.24, -6.3, -4.52, -3.09, -1.47, 0.0, 0.0, 0.0, -0.64, -1.35, -1.39, 0.0, 1.97, 5.18, 6.44, 5.6, 5.99, 5.93, 5.6, 5.4, 5.4, 1.48, 1.48, 1.48, 0.0, 0.0, 0.0, 0.0, 0.0, 0.0, 0.0, 0.0, 0.0, -1.47, -1.47, -1.42, -1.42, -2.57, -2.57, -2.38, -2.45, -2.45, -3.37, -3.37, -3.28, -2.98, -2.98, -2.98, -2.81, -2.72, -2.57, -1.95, -2.07, -2.13, -1.07, -1.07, -1.07, 0.0, 0.0, 0.0, 0.0, 0.0, 0.0, 0.0, 0.0, -0.71, -1.36, -1.43, -0.77, 0.0, 0.0, -0.59, -0.59, -0.64, -0.67, -0.65, -0.62, -0.64, -0.88, -1.03, -1.72, -0.72, 2.82, 2.17, 2.54, 2.69, 0.0, 0.0, -6.01, -5.46, -2.1, 1.69, 7.59, 3.68, -1.3, -0.8, -0.8, -3.58, -10.04, -8.53, -3.41, -1.63, -0.77, 0.0, 0.0, 0.0, 0.0, -0.6, 0.0, 0.84, 3.14, 4.65, 5.4, 4.99, 4.28, 3.68, 4.49, 4.58, 4.58, 1.48, 1.48, 1.48, 0.0, 0.0, 0.0, 0.0, 0.0, 0.0, 0.0, 0.0, 0.0, -1.47, -1.47, -1.38, -1.42, -2.57, -2.57, -2.57, -2.45, -2.45, -2.34, -2.28, -3.37, -3.18, -2.98, -2.98, -2.89, -3.58, -2.72, -2.72, -1.89, -2.07, -1.04, -1.07, -1.15, 0.0, 0.0, 0.0, 0.0, 0.0, 0.0, 0.0, 0.0, 0.0, -0.72, -0.74, -0.81, -0.81, -0.75, -0.61, -1.16, -1.33, -1.36, -1.32, -0.59, -0.61, -0.57, 0.0, 0.0, 0.0, 2.54, 2.54, 0.0, 0.0, 0.0, 0.0, -2.54, -4.2, 0.0, 3.11, 5.2, 0.0, -3.02, -4.14, 0.0, 1.58, 1.42, 0.0, -1.38, -1.83, -1.56, -0.75, -0.74, -0.71, 0.0, 0.0, 1.19, 2.28, 3.96, 4.24, 4.9, 4.48, 2.93, 2.93, 3.32, 4.06, 4.06, 1.48, 1.48, 1.48, 0.0, 0.0, 0.0, 0.0, 0.0, 0.0, 0.0, 0.0, 0.0, -1.51, -1.47, -1.47, -1.38, -1.38, -2.5, -2.5, -2.38, -2.45, -2.45, -2.28, -2.28, -2.21, -2.15, -2.98, -2.89, -2.89, -2.8, -2.8, -1.89, -1.89, -1.01, -1.04, -1.11, 0.0, 0.0, 0.0, 0.0, 0.0, 1.34, 1.26, 1.03, 0.0, 0.0, 0.0, -0.84, -0.84, -0.81, -1.33, -1.36, -1.33, -1.36, -1.4, -1.25, -1.18, -0.61, -0.57, 0.0, 0.0, 0.0, 0.0, 0.0, 0.0, 0.0, 0.0, 0.0, -2.17, 0.0, 0.0, 2.82, 0.0, -0.89, -1.73, 0.0, 4.66, 5.51, 2.65, 0.0, -3.13, -4.42, -3.67, -2.14, -0.73, 0.0, 1.81, 2.41, 3.04, 3.47, 4.58, 5.0, 3.68, 2.82, 1.98, 1.84, 2.53, 2.53, 1.48, 1.48, 1.48, 0.0, 0.0, 0.0, 0.0, 0.0, 0.0, 0.0, 0.0, 0.0, -1.51, -1.47, -1.47, -1.38, -1.38, -2.5, -2.5, -2.57, -2.38, -2.45, -2.45, -2.28, -2.21, -2.15, -2.98, -2.89, -2.89, -2.8, -2.8, -2.8, -1.83, -1.83, -0.98, -1.08, -1.11, 0.0, 0.0, 0.0, 0.0, 0.0, 1.42, 1.11, 0.86, 0.0, 0.0, 0.0, -0.89, -0.86, -1.54, -1.45, -1.39, -1.43, -1.4, -1.32, -1.36, -1.28, -0.61, -0.58, -0.59, 0.0, 0.0, 0.0, 0.0, 0.0, 0.0, 0.0, 0.0, 0.0, 0.0, 2.02, 1.9, 1.9, 0.0, 0.0, 2.51, 3.96, 3.16, 0.0, -2.9, -4.3, -4.44, -2.49, 0.0, 1.66, 2.72, 2.93, 3.34, 3.21, 3.53, 3.92, 3.34, 2.08, 0.83, 0.8, 1.71, 1.71, 1.43, 1.43, 1.48, 0.0, 0.0, 0.0, 0.0, 0.0, 0.0, 0.0, 0.0, 0.0, 0.0, -1.51, -1.47, -1.34, -1.38, -1.26, -2.5, -2.57, -2.38, -2.38, -2.45, -2.28, -2.21, -2.15, -3.18, -2.89, -2.89, -2.98, -2.8, -2.8, -1.83, -1.95, -0.98, -1.05, -1.05, 0.0, 0.0, 0.0, 0.0, 0.0, 1.51, 1.43, 0.79, 0.0, 0.0, -0.78, -0.86, -0.92, -1.71, -1.58, -1.56, -1.5, -1.47, -1.44, -1.36, -1.49, -0.67, -0.62, -0.58, -0.59, 0.0, 0.0, 0.0, 0.0, 0.0, 0.0, 0.0, 0.0, 0.0, 3.25, 4.65, 2.89, 0.82, -0.79, -1.72, -0.83, -1.6, -2.16, -2.12, -1.4, -1.66, 0.0, 0.0, 1.77, 2.45, 2.51, 2.71, 2.94, 3.34, 2.28, 2.28, 1.09, 0.93, 0.0, 0.0, 0.75, 1.43, 1.43, 1.48, 0.0, 0.0, 0.0, 0.0, 0.0, 0.0, 0.0, 0.0, 0.0, 0.0, 0.0, -1.51, -1.47, -1.34, -1.38, -1.26, -2.57, -2.57, -2.38, -2.38, -2.45, -2.21, -3.18, -3.09, -2.89, -2.89, -2.89, -2.98, -1.95, -1.95, -1.95, -1.05, -1.05, -1.1, -1.17, 0.0, 0.0, 0.0, 0.0, 0.0, 0.0, 0.75, 0.0, -1.36, -2.31, -2.63, -1.83, -1.9, -1.77, -1.63, -1.62, -1.47, -1.52, -1.36, -1.49, -1.32, -1.23, -1.14, -1.16, -1.95, 0.0, 0.0, 0.0, 0.0, 0.0, 0.0, 0.0, 0.0, 0.0, 2.93, 2.11, 1.68, 0.0, -1.77, -4.19, -4.23, -3.63, -0.71, 0.0, 0.0, 0.0, 0.99, 1.83, 2.45, 2.44, 2.61, 2.82, 2.08, 2.28, 1.16, 0.0, 0.0, 0.0, -0.75, 0.0, 1.43, 1.43, 1.43, 0.0, 0.0, 0.0, 0.0, 0.0, 0.0, 0.0, 0.0, 0.0, 0.0, 0.0, -1.51, -1.47, -1.34, -1.34, -1.26, -1.26, -2.57, -2.38, -2.38, -2.38, -2.21, -3.18, -3.09, -3.09, -2.81, -2.81, -2.89, -1.95, -1.95, -1.95, -1.02, -1.13, -1.1, -1.1, -1.26, 0.0, 0.0, 0.0, 0.0, -1.33, 0.0, -0.71, -2.28, -3.47, -3.0, -2.11, -1.97, -1.98, -1.76, -1.69, -1.47, -1.52, -1.44, -1.49, -1.4, -1.32, -1.23, -1.26, -1.3, -1.95, 0.0, -2.54, -1.84, -2.54, 0.0, 0.0, 0.0, 0.0, 0.0, 0.0, 4.0, 3.87, 1.51, -1.59, -4.1, -2.84, -0.78, 0.0, 0.87, 0.95, 1.03, 0.99, 1.83, 1.84, 1.98, 1.84, 0.97, 1.05, 0.0, 0.0, 0.0, -0.93, -1.6, -0.75, 1.43, 1.43, 1.43, 0.0, 0.0, 0.0, 0.0, 0.0, 0.0, 0.0, 0.0, 0.0, 0.0, 0.0, 0.0, -1.47, -1.34, -1.34, -1.23, -1.26, -2.5, -2.31, -2.31, -2.38, -3.28, -3.28, -3.09, -3.0, -3.0, -2.81, -2.81, -1.95, -1.95, -2.09, -1.02, -1.1, -1.1, -1.15, -1.19, -1.34, -1.34, -1.51, -1.42, -2.72, -3.97, -3.41, -2.8, -3.28, -2.43, -1.19, -1.15, -1.13, -0.97, -0.89, -1.6, -1.52, -1.58, -1.65, -1.65, -1.55, -2.12, -1.84, -2.82, -1.73, -2.4, -2.54, -2.4, -2.06, -2.4, 0.0, 0.0, 0.0, -3.39, 0.0, 1.77, 4.81, 3.86, 0.8, -1.54, -2.71, -1.16, 0.0, 1.11, 1.97, 1.97, 1.04, 1.09, 2.16, 1.91, 0.89, 0.97, 0.0, 0.0, 0.0, 0.0, -0.93, -1.98, -1.98, 1.38, 1.38, 1.43, 0.0, 0.0, 0.0, 0.0, 0.0, 0.0, 0.0, 0.0, 0.0, 0.0, 0.0, 0.0, 0.0, -1.47, -1.34, -1.34, -2.43, -2.5, -2.5, -2.31, -2.31, -3.42, -3.18, -3.09, -3.0, -3.0, -2.9, -2.72, -1.83, -2.02, -2.02, -2.02, -2.11, -2.11, -1.11, -1.15, -1.3, -1.3, -1.3, -2.48, -3.29, -4.64, -4.51, -2.89, -1.17, 0.0, 0.0, 0.0, 0.0, 0.0, 0.0, 0.0, -0.85, -0.89, -1.75, -1.75, -2.4, -2.26, -2.72, -2.6, -3.4, -2.4, 0.0, -1.95, -1.95, -2.26, 0.0, 0.0, 0.0, -3.25, -1.93, -2.28, -1.66, 0.0, 1.57, 1.54, 0.93, 0.0, 1.28, 1.84, 1.65, 1.65, 0.93, 1.05, 1.05, 0.97, 0.0, 0.0, 0.0, 0.0, 0.0, -0.93, -1.84, -1.84, -1.84, 1.38, 1.38, 1.43, 0.0, 0.0, 0.0, 0.0, 0.0, 0.0, 0.0, 0.0, 0.0, 0.0, 0.0, 0.0, 0.0, -1.47, -1.34, -1.34, -2.43, -2.5, -2.5, -2.31, -3.42, -3.42, -3.18, -3.09, -3.0, -2.9, -2.9, -2.81, -1.9, -1.9, -1.96, -2.18, -2.04, -2.2, -2.2, -2.2, -2.4, -2.48, -2.48, -2.4, -2.93, -3.42, -3.56, -2.02, -1.1, 0.0, 0.0, 0.0, 0.0, 0.0, 0.0, 0.0, 0.0, 0.0, -0.89, -1.75, -1.75, -2.4, -3.09, -2.72, -2.82, -1.84, 0.0, 0.0, 0.0, 0.0, 0.0, 0.0, 0.0, -4.2, -4.6, -5.54, -5.86, -1.89, 1.65, 4.74, 4.67, 5.21, 5.21, 3.13, 2.16, 0.72, 0.0, 0.0, 0.0, 0.0, -0.83, -0.83, -0.83, -0.97, -1.71, -1.71, -1.71, -1.71, -1.71, 1.38, 1.38, 1.43, 0.0, 0.0, 0.0, 0.0, 0.0, 0.0, 0.0, 0.0, 0.0, 0.0, 0.0, 0.0, 0.0, -1.47, -1.34, -1.34, -2.43, -2.5, -2.5, -2.31, -3.42, -3.42, -3.42, -3.09, -3.0, -2.9, -2.81, -2.81, -1.9, -1.9, -2.04, -2.04, -2.04, -2.13, -2.2, -2.4, -2.4, -2.4, -2.4, -2.32, -2.82, -2.71, -2.71, -2.04, -1.11, -1.11, 0.0, 0.0, 0.0, 0.0, 0.0, 0.0, 0.0, 0.0, 0.0, -0.84, -1.75, -2.54, -3.09, -2.9, -2.8, -3.6, 0.0, 0.0, 2.26, 3.4, 2.4, 0.0, 0.0, -4.2, -4.6, -4.23, -3.92, -1.13, 0.92, 3.93, 7.04, 9.2, 9.68, 7.22, 3.89, 0.73, 0.0, 0.0, -0.92, -1.77, -2.53, -2.24, -2.71, -2.82, -2.53, -2.53, -2.44, -2.44, -2.44, 1.38, 1.38, 1.43, 0.0, 0.0, 0.0, 0.0, 0.0, 0.0, 0.0, 0.0, 0.0, 0.0, 0.0, 0.0, 0.0, -1.47, -1.34, -1.34, -2.64, -2.43, -2.5, -3.69, -3.42, -3.42, -3.42, -3.32, -3.0, -2.9, -2.9, -2.81, -1.83, -1.97, -1.97, -1.97, -1.97, -2.13, -2.13, -2.4, -2.32, -2.32, -2.32, -2.32, -1.91, -2.71, -1.98, -2.13, -1.08, -1.08, -1.0, -0.93, 0.0, 0.0, 0.0, 0.0, 0.0, 0.0, 0.0, 0.0, -0.84, -1.65, -2.4, -2.9, -2.72, -2.04, -1.67, 0.0, 0.0, 0.0, 1.95, 0.0, -2.06, -2.17, -1.93, -2.02, 0.0, 0.0, 0.99, 2.64, 6.8, 9.54, 10.35, 8.94, 5.72, 3.73, 1.67, -0.84, -2.47, -3.56, -4.43, -3.47, -4.15, -4.32, -3.82, -3.42, -3.42, -3.42, -3.42, 1.38, 1.38, 1.43, 0.0, 0.0, 0.0, 0.0, 0.0, 0.0, 0.0, 0.0, 0.0, 0.0, 0.0, 0.0, -1.47, -1.47, -1.34, -2.64, -2.64, -2.43, -2.5, -3.69, -3.42, -3.42, -3.42, -3.32, -3.22, -2.9, -2.9, -3.02, -2.92, -2.92, -2.81, -2.81, -3.04, -2.06, -2.06, -2.32, -2.32, -2.32, -2.32, -2.32, -2.16, -1.84, -1.98, -2.06, -1.13, -1.13, -1.05, -0.89, -0.82, -0.74, -0.71, 0.0, -0.73, -0.73, -0.76, -0.8, -0.76, -0.79, -1.55, -1.45, -1.98, -1.41, -1.67, 0.0, 0.0, 0.0, -1.95, -2.06, -2.69, 0.0, 0.0, 0.0, 0.0, 0.0, 1.13, 4.1, 6.96, 8.14, 7.8, 8.75, 8.8, 7.22, 3.62, 0.0, -2.33, -4.36, -5.4, -5.64, -5.2, -4.54, -4.62, -4.3, -4.01, -4.01, -4.01, 1.38, 1.38, 1.43, 0.0, 0.0, 0.0, 0.0, 0.0, 0.0, 0.0, 0.0, 0.0, 0.0, 0.0, -1.47, -1.47, -1.47, -1.34, -2.64, -2.56, -2.56, -3.58, -3.69, -3.69, -3.42, -3.42, -3.32, -3.22, -3.12, -3.12, -3.02, -3.02, -2.92, -2.81, -2.81, -2.93, -2.93, -2.24, -2.24, -2.24, -2.24, -2.24, -2.24, -2.16, -2.0, -1.98, -2.24, -1.13, -1.09, -1.01, -0.89, -0.85, -0.78, -0.74, -0.73, -0.69, -0.69, -0.69, -0.76, -0.76, -0.76, -0.74, -0.69, -0.67, -0.7, -1.95, -1.84, -1.84, 0.0, 0.0, 0.0, -2.69, -2.17, 0.0, 0.0, 0.0, 0.0, 2.82, 4.9, 7.18, 7.2, 6.8, 8.83, 10.9, 9.6, 5.65, 1.39, -1.43, -5.99, -6.7, -7.73, -6.76, -6.71, -5.52, -5.35, -5.0, -5.0, -5.0, 1.38, 1.38, 1.43, 0.0, 0.0, 0.0, 0.0, 0.0, 0.0, 0.0, 0.0, 0.0, 0.0, 0.0, -1.47, -1.47, -1.47, -2.64, -2.64, -2.64, -2.64, -3.58, -3.69, -3.69, -3.42, -3.32, -3.32, -3.22, -3.12, -3.02, -3.02, -3.02, -2.92, -2.81, -3.04, -2.93, -2.93, -2.16, -2.16, -2.24, -2.24, -2.45, -2.24, -2.16, -2.08, -2.24, -2.32, -2.24, -1.16, -0.97, -0.93, -0.82, -0.82, -1.54, -1.52, -1.44, -1.36, -1.28, -1.4, -1.49, -0.76, -0.74, -0.64, -0.67, -0.81, -1.63, -1.32, 0.0, 0.0, 0.0, 0.0, -2.28, -2.97, -2.28, -2.28, 0.0, 0.0, 3.98, 6.2, 6.16, 5.6, 6.76, 8.18, 9.43, 7.93, 5.1, 0.0, -2.82, -5.77, -6.7, -8.22, -8.82, -7.9, -6.98, -6.57, -5.95, -5.95, -5.95, 1.38, 1.38, 0.0, 0.0, 0.0, 0.0, 0.0, 0.0, 0.0, 0.0, 0.0, 0.0, 0.0, -1.47, -1.47, -1.47, -2.89, -2.89, -2.64, -2.64, -2.64, -3.88, -3.69, -3.69, -3.58, -4.34, -4.34, -4.21, -3.12, -3.12, -3.02, -3.25, -3.14, -3.04, -3.04, -2.93, -2.16, -2.16, -2.16, -2.16, -2.37, -2.37, -2.37, -2.37, -2.16, -2.24, -2.32, -2.45, -2.28, -2.1, -1.84, -1.62, -1.62, -1.6, -1.52, -1.44, -1.44, -1.36, -1.4, -1.4, -1.4, -1.23, -1.26, -0.67, -0.81, -2.8, -3.47, -1.63, 0.0, 0.0, 0.0, 0.0, -2.28, -4.4, -2.28, 0.0, 0.0, 2.39, 3.98, 5.0, 5.4, 6.08, 6.21, 5.62, 4.77, 0.72, 0.0, -0.85, -5.63, -6.17, -7.15, -8.41, -8.82, -8.69, -6.98, -6.31, -6.31, -6.31, 1.38, 1.38, 0.0, 0.0, 0.0, 0.0, 0.0, 0.0, 0.0, 0.0, 0.0, 0.0, -1.47, -1.47, -1.47, -1.47, -2.89, -2.89, -2.89, -2.64, -3.88, -3.88, -3.58, -3.58, -4.66, -4.34, -4.34, -4.21, -3.12, -3.36, -3.25, -3.25, -3.14, -3.14, -3.04, -2.16, -2.16, -2.08, -2.08, -2.28, -2.37, -2.37, -2.37, -2.28, -2.37, -2.45, -2.54, -2.45, -2.37, -2.19, -1.84, -1.76, -1.62, -1.6, -2.23, -2.12, -2.12, -2.18, -2.18, -2.06, -2.06, -1.45, -1.36, -1.3, -1.47, -2.4, -3.72, -4.43, -4.74, -5.06, -2.4, 0.0, -1.84, -4.4, -3.11, -2.97, 0.0, 0.0, 2.49, 4.15, 4.58, 4.08, 3.96, 1.89, 0.0, 0.0, 0.0, 0.0, -3.15, -7.6, -6.64, -6.69, -8.15, -8.94, -7.59, -6.83, -6.83, -6.83, 0.0, 0.0, 0.0, 0.0, 0.0, 0.0, 0.0, 0.0, 0.0, 0.0, 0.0, -1.63, -1.47, -1.47, -1.47, -2.89, -2.89, -2.89, -2.89, -2.89, -3.88, -3.88, -3.88, -4.66, -4.66, -4.66, -4.52, -3.47, -3.36, -3.25, -3.25, -3.14, -3.14, -2.32, -2.24, -2.16, -2.16, -2.08, -2.28, -2.28, -2.28, -2.28, -2.28, -2.28, -2.28, -2.28, -2.37, -2.37, -2.37, -2.19, -1.92, -1.84, -1.62, -2.28, -2.35, -2.23, -2.31, -2.31, -2.18, -2.18, -2.06, -2.12, -1.98, -2.04, -2.29, -2.88, -4.02, -5.36, -5.58, -5.06, -5.37, -5.69, -5.1, -5.36, -5.46, -5.21, -2.97, 0.0, 0.0, 0.0, 2.19, 3.19, 2.37, -0.78, -1.43, -0.72, -0.69, 0.0, -1.07, -5.63, -5.1, -4.71, -6.64, -7.33, -7.56, -6.4, -6.4, -6.4, 0.0, 0.0, 0.0, 0.0, 0.0, 0.0, 0.0, 0.0, 0.0, 0.0, 0.0, -1.58, -1.47, -1.47, -2.89, -2.89, -2.89, -2.89, -2.89, -4.37, -4.24, -3.88, -5.04, -4.66, -4.66, -4.52, -4.52, -3.47, -3.36, -3.25, -3.53, -2.32, -2.32, -2.24, -2.24, -2.16, -2.16, -2.08, -2.28, -2.19, -2.28, -2.28, -2.28, -2.28, -2.19, -2.19, -2.28, -2.28, -2.28, -2.19, -2.1, -1.84, -2.39, -2.39, -2.47, -2.35, -2.44, -2.44, -2.31, -2.82, -2.66, -2.66, -2.72, -2.8, -2.8, -3.11, -3.64, -4.07, -3.97, -5.06, -6.32, -7.28, -6.79, -4.46, -5.69, -7.44, -6.64, -3.11, 0.0, 0.0, 0.0, 1.84, 0.86, 0.0, 0.0, 0.0, -0.69, -0.69, -1.65, -4.54, -6.24, -5.46, -5.03, -6.01, -6.32, -5.86, -5.86, -5.86, 0.0, 0.0, 0.0, 0.0, 0.0, 0.0, 0.0, 0.0, 0.0, 0.0, -1.53, -1.58, -1.47, -1.47, -2.89, -2.89, -2.89, -2.89, -4.24, -4.37, -4.37, -3.88, -5.04, -4.66, -4.52, -4.52, -3.47, -3.65, -3.65, -3.53, -2.4, -2.32, -2.32, -2.24, -2.24, -2.16, -2.16, -2.28, -2.28, -2.19, -2.19, -2.28, -2.28, -2.19, -2.19, -2.1, -2.1, -2.1, -2.1, -2.1, -2.1, -2.71, -2.39, -2.39, -2.59, -2.47, -2.57, -2.57, -3.15, -2.82, -2.82, -2.66, -2.72, -3.0, -3.0, -3.55, -4.02, -3.76, -4.29, -3.97, -4.83, -6.01, -4.96, 0.0, 0.0, -3.8, -7.81, -8.18, -5.7, -2.49, 0.0, 0.0, 0.99, 1.53, 1.57, 0.78, 0.0, -1.55, -3.19, -5.0, -6.86, -7.06, -6.32, -7.15, -6.64, -5.31, -5.31, -5.31, 0.0, 0.0, 0.0, 0.0, 0.0, 0.0, 0.0, 0.0, 0.0, -1.48, -1.53, -1.58, -1.42, -2.89, -2.89, -2.89, -2.89, -2.89, -4.24, -4.37, -4.37, -4.0, -5.19, -5.04, -4.89, -3.76, -3.76, -3.65, -3.65, -2.4, -2.32, -2.32, -2.24, -2.24, -2.24, -2.16, -2.16, -2.28, -2.19, -2.19, -2.19, -2.19, -2.42, -2.42, -2.33, -2.33, -2.1, -2.1, -2.02, -2.02, -2.95, -2.71, -2.49, -2.39, -2.59, -2.47, -3.49, -3.32, -3.15, -2.99, -3.6, -3.4, -3.47, -3.26, -3.55, -3.55, -4.02, -4.42, -4.12, -4.75, -3.4, -2.54, -2.69, 0.0, 2.83, 0.0, -2.97, -8.8, -8.23, -7.27, -5.7, -1.76, 0.0, 0.0, 1.55, 0.78, 0.0, -0.71, -2.49, -5.98, -8.58, -8.15, -7.27, -7.51, -6.64, -5.63, -5.63, -5.63, 0.0, 0.0, 0.0, 0.0, 0.0, 0.0, 0.0, 0.0, 0.0, -1.48, -1.53, -1.58, -1.42, -2.89, -2.89, -2.89, -2.89, -4.24, -4.24, -4.24, -4.37, -4.37, -5.19, -5.04, -3.76, -3.76, -3.76, -2.48, -2.4, -2.4, -2.32, -2.24, -2.24, -2.24, -2.16, -2.16, -2.37, -2.28, -2.28, -2.19, -2.19, -2.42, -2.42, -2.42, -2.33, -2.33, -2.33, -2.02, -2.02, -2.95, -2.95, -2.71, -2.71, -3.11, -3.36, -3.36, -3.49, -3.32, -3.32, -3.15, -3.6, -3.4, -3.69, -3.47, -4.29, -4.29, -4.29, -4.39, -4.74, -4.47, -4.22, -4.56, -2.54, -3.6, 0.0, 0.0, -2.28, -6.95, -8.23, -8.23, -7.27, -5.29, -3.92, -1.83, -0.77, 0.0, 0.0, 0.0, -0.72, -4.37, -8.77, -9.75, -9.6, -8.03, -8.05, -6.64, -6.64, -6.64, 0.0, 0.0, 0.0, 0.0, 0.0, 0.0, 0.0, 0.0, -1.48, -1.48, -1.53, -1.53, -2.81, -2.89, -2.89, -2.89, -2.89, -4.24, -4.24, -4.37, -4.37, -5.64, -5.19, -3.88, -3.76, -3.76, -2.72, -2.72, -2.63, -2.54, -2.32, -2.24, -2.24, -2.16, -3.18, -3.18, -3.34, -3.34, -3.34, -3.21, -3.21, -3.53, -2.42, -2.33, -2.33, -2.33, -2.33, -2.95, -2.95, -2.95, -2.95, -3.36, -3.51, -3.36, -3.36, -3.36, -3.49, -3.49, -3.32, -3.8, -3.8, -3.6, -4.46, -4.22, -3.97, -4.29, -4.71, -4.75, -4.75, -5.37, -5.37, -6.08, -5.06, -6.8, -7.2, -6.32, -5.63, -6.64, -7.87, -7.87, -7.27, -5.29, -5.54, -3.96, -3.2, -1.58, -0.79, 0.0, 0.0, -1.4, -9.39, -9.83, -9.75, -8.82, -8.05, -8.05, -8.05, -8.05, 0.0, 0.0, 0.0, 0.0, 0.0, 0.0, 0.0, -1.48, -1.48, -1.48, -1.53, -2.72, -2.81, -2.81, -2.89, -2.81, -4.11, -4.24, -4.24, -4.24, -4.37, -4.37, -4.37, -4.37, -4.11, -3.98, -2.72, -2.72, -2.63, -2.54, -2.54, -3.29, -3.29, -3.18, -3.18, -3.47, -3.47, -3.34, -3.34, -3.21, -3.53, -3.53, -3.39, -3.39, -3.39, -3.39, -3.25, -3.25, -2.95, -2.95, -2.95, -3.36, -3.36, -3.36, -3.36, -3.21, -3.49, -3.49, -4.2, -4.34, -3.8, -4.37, -4.14, -4.67, -4.67, -4.75, -4.75, -5.05, -5.05, -4.75, -5.38, -6.32, -6.79, -6.79, -6.32, -7.07, -4.96, -2.97, -5.21, -6.95, -7.27, -5.52, -5.0, -4.81, -3.91, -3.18, -2.4, -0.7, 0.0, 0.0, -7.81, -9.54, -9.83, -8.8, -8.4, -8.4, -8.4, -8.4, 0.0, 0.0, 0.0, 0.0, 0.0, 0.0, 0.0, -1.43, -1.48, -1.48, -3.01, -2.72, -2.81, -2.81, -2.81, -2.81, -4.11, -4.11, -4.24, -4.24, -4.24, -4.37, -4.37, -4.24, -4.11, -2.72, -2.72, -2.63, -3.85, -3.73, -3.73, -3.6, -3.47, -3.47, -3.47, -3.47, -3.47, -3.34, -3.34, -3.68, -3.53, -3.53, -3.53, -3.39, -3.39, -3.39, -3.25, -3.25, -2.95, -3.82, -3.65, -3.36, -3.36, -3.36, -3.36, -3.21, -3.49, -3.32, -4.56, -4.0, -4.0, -4.37, -4.14, -4.61, -4.75, -5.05, -5.37, -5.37, -5.35, -5.05, -5.06, -6.44, -4.74, -5.37, -3.2, -2.54, -2.69, 0.0, -2.28, -5.46, -6.17, -5.32, -5.43, -5.99, -4.87, -3.9, -2.34, -1.54, -0.7, 0.0, 0.0, -5.21, -9.83, 0.0, 0.0, 0.0, 0.0, 0.0, 0.0, 0.0, 0.0, 0.0, 0.0, 0.0, -1.43, -1.43, -1.43, -1.48, -2.91, -3.01, -2.81, -2.81, -2.81, -4.11, -4.11, -4.11, -4.11, -4.24, -4.24, -4.24, -4.24, -4.24, -4.11, -3.98, -3.98, -3.85, -3.85, -3.73, -3.73, -3.6, -3.47, -3.47, -3.47, -3.34, -3.34, -3.34, -3.34, -3.53, -3.53, -3.53, -3.92, -3.77, -3.77, -3.39, -3.39, -3.25, -4.18, -3.82, -3.65, -3.65, -3.36, -3.36, -3.21, -3.49, -3.49, -3.32, -4.34, -4.0, -4.0, -4.37, -4.87, -5.03, -5.38, -5.08, -5.08, -5.69, -5.69, -5.05, -5.06, -4.36, -3.72, -4.22, 0.0, 0.0, -2.69, -4.2, -2.97, -5.46, -5.29, -6.24, -6.2, -5.78, -4.81, -3.95, -2.32, -1.54, -0.79, 0.0, 0.0, 0.0, 0.0, 6.32, 4.96, 4.96, 4.96, 4.96, 0.0, 0.0, 0.0, 0.0, 0.0, 0.0, -1.43, -1.43, -1.43, -1.48, -2.91, -3.01, -2.81, -2.81, -2.81, -4.11, -4.11, -4.11, -4.11, -4.24, -4.24, -4.24, -4.24, -4.24, -4.11, -3.98, -3.98, -3.85, -3.85, -3.73, -3.73, -3.6, -3.47, -3.47, -3.47, -3.34, -3.34, -3.34, -3.34, -3.53, -3.53, -3.53, -3.92, -3.77, -3.77, -3.39, -3.39, -3.25, -4.18, -3.82, -3.65, -3.65, -3.36, -3.36, -3.21, -3.49, -3.49, -3.32, -4.34, -4.0, -4.0, -4.37, -4.87, -5.03, -5.38, -5.08, -5.08, -5.69, -5.69, -5.05, -5.06, -4.36, -3.72, -4.22, 0.0, 0.0, -4.0, -4.2, -2.97, -5.46, -5.29, -6.24, -5.92, -5.57, -5.06, -3.87, -2.3, -1.54, 0.0, 0.0, 0.0, 0.78, 1.33, 2.28, 2.28, 2.28, 2.28, 2.28]}]